GEFSMA_prec_meanprecacc_108.txt.gz
Total_Precipitation_Accumulation
0.71 0.88 0.90 1.01 0.78 0.73 0.66 0.57 0.49 0.47 0.39 0.30 0.27 0.26 0.31 0.40 0.46 0.53 0.54 0.49 0.47 0.62 0.88 0.95 0.86 0.81 0.79 0.74 0.69 0.65 0.62 0.62 0.57 0.51 0.42 0.35 0.32 0.32 0.33 0.35 0.35 0.34 0.33
0.91 1.13 1.18 1.18 1.01 1.00 1.06 1.03 0.92 0.75 0.62 0.60 0.53 0.46 0.48 0.58 0.66 0.68 0.71 0.66 0.56 0.62 0.83 0.98 1.03 1.04 0.99 0.89 0.81 0.76 0.75 0.73 0.71 0.62 0.54 0.48 0.44 0.43 0.41 0.40 0.38 0.36 0.32
1.25 1.29 1.47 1.41 1.24 1.21 1.21 1.16 1.20 1.13 0.97 0.88 0.78 0.68 0.71 0.77 0.80 0.87 0.94 1.00 0.83 0.72 0.77 0.89 0.97 1.01 1.03 1.03 0.99 0.94 0.92 0.81 0.74 0.65 0.61 0.59 0.56 0.57 0.54 0.49 0.47 0.44 0.40
1.64 1.60 1.59 1.57 1.49 1.51 1.67 1.66 1.51 1.45 1.40 1.25 1.13 1.04 0.98 1.01 0.96 0.97 0.95 1.05 1.13 0.94 0.77 0.74 0.76 0.82 0.95 1.09 1.17 1.18 1.09 0.98 0.89 0.80 0.73 0.69 0.67 0.62 0.58 0.56 0.54 0.53 0.50
2.07 2.13 2.12 2.15 2.02 2.05 2.01 1.86 1.85 1.72 1.69 1.52 1.25 1.16 1.08 1.08 0.99 0.88 0.86 0.92 1.01 0.97 0.86 0.71 0.69 0.76 0.88 1.02 1.11 1.14 1.09 0.99 0.93 0.89 0.85 0.79 0.73 0.66 0.60 0.57 0.58 0.61 0.62
2.77 2.80 2.75 2.73 2.62 2.46 2.31 2.22 2.15 1.92 1.74 1.52 1.23 1.09 1.00 0.90 0.86 0.84 0.76 0.76 0.77 0.74 0.75 0.72 0.67 0.65 0.72 0.80 0.86 0.95 0.94 0.91 0.89 0.89 0.81 0.78 0.76 0.70 0.65 0.62 0.64 0.69 0.71
3.36 3.18 3.06 3.04 2.87 2.64 2.43 2.32 2.17 2.03 1.77 1.55 1.47 1.26 0.99 0.82 0.76 0.68 0.62 0.60 0.59 0.59 0.65 0.65 0.61 0.57 0.56 0.60 0.60 0.66 0.71 0.72 0.75 0.79 0.79 0.83 0.80 0.74 0.72 0.71 0.72 0.76 0.76
3.79 3.56 3.48 3.31 3.05 2.85 2.61 2.37 2.17 2.11 1.91 1.70 1.64 1.57 1.27 0.96 0.71 0.54 0.49 0.45 0.44 0.43 0.44 0.43 0.42 0.43 0.43 0.44 0.48 0.53 0.55 0.62 0.69 0.76 0.80 0.80 0.80 0.78 0.78 0.78 0.78 0.79 0.81
4.20 3.96 3.83 3.54 3.25 2.94 2.66 2.39 2.16 2.02 1.91 1.76 1.61 1.64 1.46 1.16 0.82 0.60 0.45 0.38 0.34 0.36 0.37 0.35 0.35 0.36 0.36 0.38 0.41 0.46 0.48 0.51 0.57 0.63 0.68 0.73 0.77 0.79 0.79 0.82 0.85 0.90 0.95
3.62 3.50 3.37 3.17 2.94 2.63 2.39 2.17 1.94 1.81 1.83 1.68 1.50 1.34 1.24 1.06 0.88 0.70 0.50 0.40 0.35 0.36 0.34 0.33 0.33 0.33 0.33 0.33 0.40 0.42 0.41 0.42 0.45 0.47 0.50 0.52 0.56 0.59 0.61 0.64 0.69 0.78 0.87
3.03 2.80 2.65 2.51 2.33 2.14 1.96 1.83 1.74 1.61 1.54 1.43 1.28 1.15 1.09 0.97 0.79 0.67 0.58 0.46 0.42 0.40 0.37 0.34 0.33 0.34 0.34 0.33 0.34 0.39 0.40 0.36 0.38 0.38 0.37 0.36 0.38 0.43 0.48 0.51 0.56 0.63 0.71
2.44 2.08 1.87 1.71 1.59 1.47 1.43 1.42 1.36 1.31 1.25 1.20 1.11 1.00 0.93 0.91 0.82 0.72 0.62 0.54 0.51 0.48 0.41 0.36 0.34 0.33 0.31 0.29 0.30 0.37 0.29 0.27 0.28 0.28 0.27 0.26 0.26 0.29 0.34 0.41 0.48 0.56 0.62
1.95 1.61 1.41 1.30 1.24 1.17 1.08 1.08 1.05 1.03 1.01 1.01 0.98 0.90 0.84 0.78 0.74 0.70 0.68 0.64 0.56 0.48 0.41 0.37 0.31 0.27 0.25 0.23 0.26 0.32 0.24 0.23 0.22 0.20 0.20 0.20 0.20 0.21 0.22 0.25 0.31 0.38 0.46
1.51 1.32 1.18 1.08 0.94 0.81 0.77 0.77 0.78 0.78 0.79 0.85 0.85 0.83 0.82 0.79 0.74 0.67 0.64 0.64 0.65 0.59 0.50 0.42 0.35 0.30 0.26 0.23 0.26 0.28 0.22 0.24 0.21 0.21 0.20 0.20 0.18 0.18 0.18 0.20 0.23 0.25 0.29
1.05 0.93 0.82 0.74 0.69 0.62 0.58 0.57 0.59 0.62 0.65 0.71 0.75 0.78 0.82 0.84 0.83 0.75 0.68 0.63 0.66 0.67 0.61 0.49 0.40 0.32 0.26 0.23 0.25 0.20 0.20 0.23 0.19 0.17 0.16 0.14 0.13 0.12 0.12 0.13 0.15 0.15 0.16
0.81 0.69 0.58 0.51 0.50 0.50 0.49 0.45 0.45 0.48 0.51 0.56 0.60 0.65 0.70 0.75 0.78 0.78 0.77 0.73 0.66 0.63 0.61 0.49 0.39 0.32 0.27 0.22 0.21 0.18 0.18 0.17 0.14 0.11 0.09 0.09 0.09 0.09 0.10 0.10 0.12 0.14 0.15
0.75 0.65 0.57 0.53 0.49 0.45 0.42 0.41 0.40 0.43 0.48 0.49 0.47 0.50 0.55 0.55 0.58 0.59 0.58 0.56 0.53 0.51 0.51 0.41 0.32 0.29 0.30 0.28 0.25 0.23 0.21 0.20 0.16 0.11 0.10 0.10 0.10 0.10 0.10 0.12 0.14 0.15 0.16
0.57 0.53 0.47 0.46 0.45 0.41 0.39 0.37 0.35 0.33 0.32 0.34 0.34 0.36 0.37 0.37 0.39 0.39 0.39 0.38 0.37 0.35 0.36 0.35 0.31 0.27 0.27 0.26 0.25 0.24 0.14 0.10 0.13 0.10 0.09 0.10 0.12 0.13 0.14 0.15 0.15 0.14 0.12
0.49 0.47 0.42 0.39 0.38 0.36 0.31 0.29 0.28 0.24 0.21 0.21 0.21 0.22 0.24 0.25 0.26 0.25 0.26 0.25 0.26 0.25 0.30 0.34 0.31 0.27 0.22 0.20 0.22 0.18 0.16 0.22 0.13 0.09 0.09 0.09 0.11 0.11 0.10 0.08 0.08 0.08 0.06
0.42 0.43 0.40 0.35 0.28 0.24 0.21 0.21 0.23 0.19 0.17 0.16 0.15 0.15 0.16 0.17 0.18 0.18 0.17 0.18 0.21 0.26 0.29 0.31 0.27 0.22 0.20 0.17 0.24 0.24 0.20 0.21 0.18 0.11 0.11 0.09 0.09 0.06 0.05 0.04 0.04 0.05 0.05
0.35 0.33 0.29 0.27 0.23 0.19 0.17 0.17 0.19 0.16 0.14 0.13 0.12 0.11 0.11 0.13 0.14 0.13 0.14 0.17 0.23 0.28 0.28 0.29 0.25 0.21 0.19 0.23 0.26 0.26 0.26 0.21 0.17 0.12 0.15 0.13 0.14 0.17 0.17 0.12 0.08 0.06 0.04
0.26 0.24 0.22 0.21 0.19 0.16 0.15 0.14 0.13 0.14 0.14 0.14 0.12 0.11 0.11 0.09 0.08 0.08 0.10 0.14 0.21 0.25 0.26 0.28 0.27 0.28 0.26 0.29 0.34 0.33 0.34 0.35 0.30 0.21 0.23 0.19 0.16 0.24 0.26 0.22 0.14 0.08 0.06
0.24 0.19 0.16 0.15 0.17 0.16 0.12 0.09 0.09 0.11 0.13 0.15 0.16 0.14 0.09 0.06 0.08 0.11 0.10 0.09 0.11 0.12 0.19 0.28 0.33 0.33 0.33 0.36 0.44 0.43 0.44 0.45 0.42 0.32 0.36 0.34 0.25 0.28 0.21 0.14 0.13 0.11 0.08
0.23 0.20 0.16 0.14 0.14 0.12 0.08 0.06 0.06 0.09 0.12 0.13 0.13 0.13 0.13 0.11 0.09 0.08 0.07 0.08 0.12 0.15 0.17 0.21 0.31 0.32 0.28 0.31 0.41 0.46 0.45 0.45 0.45 0.43 0.46 0.48 0.34 0.29 0.20 0.28 0.25 0.17 0.12
0.21 0.16 0.14 0.13 0.14 0.12 0.06 0.04 0.05 0.08 0.10 0.09 0.07 0.08 0.09 0.11 0.09 0.08 0.08 0.12 0.16 0.19 0.14 0.18 0.24 0.29 0.34 0.40 0.43 0.46 0.54 0.60 0.58 0.52 0.53 0.55 0.47 0.37 0.30 0.36 0.33 0.23 0.21
0.20 0.14 0.13 0.14 0.13 0.13 0.06 0.03 0.04 0.06 0.09 0.08 0.09 0.10 0.10 0.08 0.07 0.07 0.08 0.15 0.22 0.21 0.22 0.28 0.44 0.61 0.68 0.66 0.55 0.54 0.63 0.67 0.67 0.72 0.64 0.63 0.59 0.48 0.45 0.38 0.38 0.40 0.43

GEFSMA_prec_meanprecacc_114.txt.gz
Total_Precipitation_Accumulation
0.78 0.99 1.04 1.15 0.93 0.90 0.82 0.69 0.57 0.53 0.45 0.39 0.39 0.44 0.50 0.53 0.58 0.66 0.66 0.63 0.64 0.76 0.97 1.01 0.91 0.85 0.82 0.76 0.72 0.68 0.65 0.64 0.59 0.52 0.43 0.35 0.33 0.33 0.34 0.36 0.37 0.35 0.35
1.05 1.35 1.38 1.36 1.20 1.19 1.21 1.21 1.08 0.91 0.74 0.71 0.68 0.68 0.72 0.78 0.86 0.87 0.88 0.80 0.71 0.75 0.93 1.06 1.09 1.10 1.03 0.93 0.84 0.79 0.76 0.75 0.72 0.63 0.55 0.49 0.45 0.43 0.43 0.41 0.39 0.36 0.33
1.39 1.44 1.68 1.65 1.50 1.46 1.38 1.31 1.44 1.41 1.18 1.01 0.92 0.90 0.99 1.01 1.02 1.07 1.17 1.18 0.98 0.86 0.88 0.97 1.06 1.09 1.08 1.08 1.03 0.97 0.95 0.84 0.75 0.66 0.62 0.60 0.57 0.58 0.55 0.51 0.47 0.45 0.41
1.77 1.74 1.76 1.77 1.70 1.67 1.83 1.85 1.75 1.72 1.67 1.47 1.32 1.23 1.21 1.28 1.18 1.18 1.17 1.27 1.31 1.07 0.87 0.83 0.84 0.89 1.01 1.15 1.23 1.25 1.17 1.03 0.92 0.82 0.75 0.71 0.69 0.63 0.59 0.57 0.55 0.54 0.51
2.20 2.24 2.26 2.28 2.17 2.19 2.15 2.04 2.10 2.05 1.98 1.77 1.46 1.33 1.25 1.29 1.23 1.08 1.07 1.17 1.21 1.08 0.94 0.79 0.76 0.81 0.95 1.11 1.20 1.25 1.20 1.06 0.98 0.92 0.87 0.82 0.76 0.68 0.62 0.58 0.59 0.62 0.64
2.90 2.91 2.84 2.82 2.71 2.56 2.44 2.39 2.31 2.12 1.99 1.75 1.43 1.26 1.17 1.07 1.04 1.06 0.96 0.92 0.92 0.83 0.81 0.79 0.73 0.71 0.79 0.88 0.97 1.07 1.05 0.99 0.94 0.92 0.84 0.81 0.78 0.72 0.66 0.63 0.64 0.70 0.72
3.44 3.27 3.14 3.12 2.94 2.72 2.55 2.45 2.34 2.23 1.95 1.70 1.63 1.42 1.14 0.97 0.91 0.85 0.81 0.76 0.71 0.68 0.73 0.71 0.67 0.63 0.63 0.69 0.70 0.77 0.83 0.84 0.83 0.83 0.82 0.86 0.83 0.77 0.75 0.73 0.74 0.77 0.77
3.85 3.63 3.55 3.38 3.12 2.93 2.71 2.47 2.30 2.24 2.03 1.82 1.77 1.72 1.40 1.10 0.84 0.67 0.64 0.60 0.56 0.53 0.52 0.49 0.48 0.50 0.51 0.53 0.58 0.63 0.66 0.72 0.77 0.83 0.85 0.84 0.84 0.81 0.80 0.80 0.80 0.80 0.83
4.25 4.01 3.88 3.60 3.32 3.01 2.73 2.48 2.26 2.13 2.04 1.92 1.76 1.79 1.60 1.29 0.95 0.72 0.56 0.49 0.46 0.48 0.47 0.42 0.42 0.42 0.44 0.46 0.53 0.57 0.56 0.56 0.62 0.68 0.72 0.77 0.81 0.82 0.82 0.84 0.87 0.91 0.97
3.68 3.55 3.41 3.22 2.99 2.69 2.45 2.24 2.04 1.91 1.94 1.84 1.69 1.53 1.41 1.21 1.03 0.85 0.64 0.52 0.48 0.49 0.47 0.44 0.43 0.42 0.44 0.44 0.50 0.55 0.52 0.48 0.49 0.50 0.52 0.54 0.58 0.61 0.63 0.66 0.70 0.79 0.88
3.07 2.83 2.68 2.55 2.38 2.19 2.01 1.89 1.82 1.72 1.64 1.53 1.40 1.31 1.27 1.15 0.95 0.80 0.72 0.61 0.57 0.54 0.50 0.47 0.45 0.45 0.47 0.48 0.46 0.50 0.49 0.43 0.42 0.40 0.38 0.38 0.40 0.45 0.50 0.53 0.57 0.64 0.72
2.47 2.11 1.90 1.75 1.64 1.54 1.52 1.49 1.47 1.42 1.35 1.29 1.21 1.12 1.06 1.04 0.96 0.86 0.75 0.67 0.65 0.61 0.54 0.47 0.45 0.44 0.43 0.42 0.44 0.50 0.38 0.33 0.33 0.31 0.30 0.29 0.29 0.31 0.36 0.43 0.49 0.57 0.63
1.99 1.64 1.43 1.33 1.29 1.25 1.18 1.19 1.19 1.15 1.12 1.11 1.09 1.02 0.97 0.92 0.88 0.86 0.86 0.83 0.73 0.63 0.54 0.48 0.41 0.35 0.34 0.33 0.37 0.42 0.31 0.29 0.27 0.25 0.24 0.24 0.24 0.23 0.24 0.27 0.33 0.40 0.48
1.54 1.34 1.20 1.12 0.99 0.86 0.83 0.86 0.89 0.91 0.91 0.95 0.96 0.96 0.99 0.96 0.90 0.84 0.83 0.87 0.90 0.83 0.67 0.56 0.46 0.39 0.34 0.32 0.36 0.36 0.28 0.31 0.28 0.27 0.26 0.24 0.21 0.20 0.20 0.22 0.24 0.26 0.29
1.08 0.94 0.83 0.76 0.72 0.64 0.62 0.64 0.68 0.71 0.74 0.79 0.84 0.89 0.97 1.04 1.05 0.99 0.93 0.90 0.92 0.95 0.85 0.67 0.56 0.46 0.39 0.34 0.36 0.28 0.27 0.31 0.26 0.23 0.20 0.17 0.15 0.13 0.13 0.14 0.15 0.16 0.17
0.84 0.71 0.60 0.52 0.52 0.52 0.52 0.49 0.52 0.55 0.57 0.61 0.67 0.74 0.83 0.93 1.02 1.06 1.08 1.02 0.93 0.88 0.84 0.68 0.56 0.49 0.41 0.34 0.34 0.28 0.27 0.25 0.20 0.16 0.13 0.12 0.11 0.10 0.10 0.11 0.12 0.14 0.15
0.78 0.67 0.59 0.55 0.52 0.47 0.44 0.45 0.44 0.46 0.52 0.54 0.53 0.58 0.66 0.71 0.79 0.85 0.87 0.84 0.80 0.73 0.71 0.60 0.49 0.44 0.42 0.39 0.37 0.33 0.27 0.26 0.21 0.14 0.12 0.11 0.11 0.11 0.11 0.13 0.14 0.15 0.17
0.58 0.54 0.48 0.48 0.48 0.44 0.42 0.41 0.38 0.37 0.36 0.37 0.38 0.44 0.50 0.51 0.56 0.56 0.57 0.55 0.52 0.48 0.48 0.50 0.47 0.42 0.39 0.40 0.37 0.32 0.19 0.14 0.16 0.12 0.10 0.11 0.12 0.14 0.15 0.15 0.15 0.14 0.12
0.49 0.48 0.44 0.41 0.40 0.39 0.36 0.34 0.33 0.29 0.25 0.25 0.26 0.29 0.34 0.36 0.37 0.36 0.37 0.35 0.36 0.35 0.41 0.46 0.44 0.41 0.36 0.32 0.32 0.25 0.21 0.25 0.15 0.10 0.09 0.09 0.11 0.11 0.10 0.08 0.08 0.08 0.06
0.44 0.45 0.41 0.36 0.30 0.27 0.25 0.27 0.30 0.25 0.21 0.20 0.20 0.21 0.23 0.24 0.24 0.24 0.22 0.23 0.28 0.33 0.37 0.39 0.35 0.30 0.28 0.24 0.30 0.30 0.24 0.23 0.19 0.12 0.11 0.09 0.09 0.07 0.05 0.04 0.04 0.05 0.05
0.36 0.35 0.31 0.29 0.25 0.22 0.22 0.23 0.25 0.24 0.21 0.18 0.16 0.15 0.16 0.17 0.19 0.18 0.18 0.21 0.27 0.33 0.33 0.34 0.30 0.26 0.24 0.28 0.31 0.30 0.28 0.22 0.18 0.13 0.16 0.14 0.14 0.17 0.17 0.13 0.08 0.06 0.05
0.29 0.26 0.24 0.23 0.22 0.20 0.21 0.20 0.19 0.23 0.22 0.19 0.16 0.15 0.14 0.12 0.11 0.11 0.13 0.18 0.24 0.28 0.29 0.31 0.30 0.31 0.29 0.32 0.36 0.35 0.35 0.35 0.31 0.21 0.24 0.19 0.16 0.24 0.26 0.23 0.14 0.08 0.06
0.27 0.23 0.20 0.20 0.22 0.21 0.18 0.15 0.15 0.18 0.21 0.21 0.19 0.17 0.13 0.09 0.11 0.13 0.12 0.12 0.13 0.15 0.21 0.30 0.35 0.35 0.34 0.37 0.44 0.44 0.44 0.45 0.42 0.32 0.36 0.34 0.25 0.29 0.21 0.15 0.13 0.11 0.08
0.26 0.24 0.21 0.19 0.20 0.19 0.16 0.12 0.12 0.14 0.18 0.19 0.18 0.18 0.17 0.16 0.13 0.11 0.10 0.10 0.14 0.17 0.19 0.23 0.32 0.33 0.29 0.32 0.41 0.46 0.46 0.45 0.45 0.43 0.46 0.48 0.34 0.30 0.20 0.28 0.25 0.17 0.12
0.25 0.20 0.19 0.19 0.20 0.18 0.12 0.10 0.09 0.11 0.15 0.13 0.12 0.13 0.13 0.14 0.12 0.11 0.10 0.14 0.18 0.21 0.15 0.19 0.25 0.30 0.34 0.40 0.43 0.46 0.54 0.61 0.58 0.52 0.53 0.55 0.47 0.38 0.30 0.36 0.33 0.23 0.21
0.25 0.18 0.17 0.19 0.19 0.18 0.10 0.07 0.06 0.08 0.11 0.10 0.11 0.11 0.11 0.09 0.08 0.08 0.09 0.16 0.23 0.21 0.22 0.29 0.44 0.61 0.68 0.66 0.56 0.54 0.63 0.67 0.67 0.72 0.64 0.63 0.59 0.48 0.45 0.38 0.39 0.40 0.44

GEFSMA_prec_meanprecacc_120.txt.gz
Total_Precipitation_Accumulation
0.79 1.00 1.06 1.17 0.97 0.95 0.86 0.73 0.60 0.55 0.47 0.40 0.40 0.45 0.52 0.55 0.61 0.69 0.69 0.67 0.70 0.84 1.08 1.13 1.02 0.95 0.90 0.83 0.78 0.74 0.70 0.69 0.64 0.55 0.45 0.37 0.34 0.34 0.36 0.38 0.39 0.37 0.37
1.07 1.37 1.42 1.40 1.25 1.26 1.28 1.28 1.15 0.95 0.78 0.74 0.71 0.72 0.75 0.81 0.90 0.92 0.92 0.84 0.77 0.85 1.05 1.18 1.20 1.20 1.12 1.00 0.90 0.84 0.82 0.80 0.77 0.67 0.59 0.53 0.48 0.46 0.45 0.44 0.42 0.39 0.35
1.41 1.48 1.74 1.73 1.58 1.55 1.49 1.42 1.55 1.51 1.25 1.08 0.98 0.96 1.06 1.07 1.08 1.12 1.21 1.22 1.03 0.95 1.00 1.10 1.18 1.20 1.18 1.15 1.10 1.02 1.00 0.88 0.80 0.71 0.67 0.64 0.62 0.61 0.58 0.53 0.50 0.47 0.43
1.80 1.78 1.81 1.84 1.78 1.77 1.95 1.98 1.90 1.87 1.80 1.59 1.43 1.34 1.32 1.38 1.27 1.26 1.24 1.34 1.40 1.15 0.96 0.94 0.97 1.01 1.11 1.25 1.32 1.33 1.23 1.08 0.98 0.87 0.79 0.75 0.72 0.67 0.62 0.59 0.57 0.56 0.53
2.25 2.29 2.31 2.37 2.28 2.30 2.26 2.18 2.25 2.20 2.12 1.92 1.61 1.48 1.37 1.39 1.32 1.17 1.16 1.27 1.32 1.19 1.04 0.90 0.88 0.95 1.08 1.23 1.33 1.39 1.32 1.15 1.05 0.99 0.94 0.86 0.79 0.71 0.64 0.61 0.61 0.64 0.66
2.97 2.98 2.90 2.91 2.83 2.69 2.56 2.52 2.44 2.24 2.12 1.90 1.59 1.42 1.28 1.16 1.13 1.15 1.03 0.99 1.01 0.94 0.93 0.89 0.83 0.81 0.91 1.01 1.12 1.24 1.21 1.13 1.07 1.04 0.93 0.87 0.83 0.76 0.69 0.66 0.67 0.72 0.74
3.50 3.34 3.21 3.19 3.03 2.84 2.67 2.56 2.44 2.33 2.06 1.83 1.76 1.53 1.23 1.05 0.98 0.92 0.91 0.87 0.82 0.79 0.84 0.81 0.75 0.71 0.72 0.82 0.84 0.93 1.01 1.01 0.99 0.97 0.92 0.93 0.88 0.81 0.78 0.76 0.76 0.80 0.79
3.91 3.68 3.61 3.45 3.19 3.01 2.78 2.54 2.38 2.33 2.12 1.94 1.88 1.81 1.47 1.15 0.88 0.71 0.71 0.71 0.67 0.63 0.63 0.60 0.58 0.58 0.58 0.62 0.69 0.79 0.85 0.91 0.93 0.96 0.94 0.91 0.90 0.85 0.84 0.83 0.84 0.84 0.85
4.31 4.07 3.94 3.68 3.39 3.07 2.79 2.54 2.33 2.21 2.13 2.01 1.85 1.88 1.66 1.33 0.98 0.75 0.60 0.56 0.56 0.59 0.58 0.54 0.52 0.51 0.52 0.57 0.66 0.73 0.74 0.74 0.77 0.81 0.83 0.88 0.91 0.90 0.90 0.93 0.94 0.96 1.01
3.72 3.60 3.47 3.30 3.06 2.75 2.52 2.31 2.11 1.98 2.01 1.91 1.77 1.60 1.48 1.26 1.08 0.89 0.68 0.57 0.54 0.58 0.59 0.57 0.55 0.53 0.54 0.55 0.63 0.71 0.68 0.63 0.64 0.64 0.65 0.66 0.68 0.69 0.72 0.75 0.77 0.83 0.91
3.11 2.88 2.73 2.61 2.45 2.27 2.09 1.97 1.89 1.78 1.70 1.60 1.47 1.39 1.34 1.21 1.00 0.85 0.78 0.67 0.66 0.64 0.62 0.61 0.59 0.58 0.58 0.59 0.56 0.61 0.62 0.56 0.54 0.53 0.50 0.48 0.49 0.52 0.57 0.59 0.62 0.68 0.75
2.50 2.14 1.94 1.81 1.70 1.61 1.59 1.57 1.53 1.47 1.41 1.35 1.27 1.18 1.13 1.10 1.02 0.92 0.82 0.75 0.76 0.74 0.68 0.62 0.57 0.56 0.56 0.54 0.55 0.63 0.51 0.49 0.49 0.47 0.44 0.41 0.40 0.41 0.44 0.49 0.54 0.61 0.67
2.02 1.68 1.48 1.38 1.33 1.29 1.23 1.24 1.24 1.19 1.17 1.16 1.14 1.08 1.05 1.00 0.97 0.98 1.01 0.98 0.85 0.75 0.68 0.64 0.57 0.51 0.48 0.47 0.50 0.56 0.44 0.45 0.47 0.44 0.39 0.37 0.35 0.33 0.33 0.35 0.39 0.45 0.51
1.58 1.37 1.23 1.15 1.02 0.89 0.87 0.90 0.93 0.95 0.95 1.01 1.04 1.04 1.07 1.06 1.02 0.97 0.97 1.02 1.07 1.00 0.83 0.73 0.65 0.58 0.51 0.49 0.53 0.51 0.40 0.45 0.42 0.41 0.40 0.36 0.32 0.30 0.30 0.29 0.31 0.32 0.34
1.10 0.96 0.86 0.78 0.74 0.67 0.64 0.67 0.71 0.74 0.77 0.83 0.89 0.95 1.04 1.11 1.12 1.07 1.05 1.03 1.08 1.15 1.09 0.89 0.77 0.68 0.57 0.52 0.57 0.44 0.42 0.48 0.41 0.36 0.33 0.29 0.25 0.22 0.20 0.20 0.20 0.20 0.20
0.85 0.72 0.61 0.54 0.54 0.55 0.55 0.51 0.53 0.56 0.59 0.64 0.69 0.77 0.87 0.97 1.07 1.12 1.17 1.13 1.07 1.06 1.06 0.92 0.80 0.72 0.61 0.52 0.55 0.45 0.43 0.42 0.33 0.26 0.22 0.21 0.19 0.17 0.16 0.15 0.16 0.16 0.16
0.78 0.69 0.61 0.57 0.54 0.49 0.46 0.46 0.45 0.48 0.53 0.55 0.54 0.59 0.68 0.74 0.83 0.90 0.96 0.98 0.98 0.94 0.95 0.88 0.75 0.69 0.65 0.57 0.52 0.46 0.41 0.39 0.33 0.26 0.20 0.18 0.16 0.15 0.14 0.15 0.16 0.17 0.17
0.59 0.56 0.50 0.50 0.49 0.46 0.43 0.42 0.39 0.38 0.38 0.39 0.40 0.45 0.51 0.53 0.60 0.63 0.67 0.71 0.74 0.75 0.77 0.81 0.77 0.66 0.60 0.55 0.50 0.42 0.30 0.25 0.27 0.23 0.18 0.16 0.16 0.16 0.16 0.16 0.16 0.15 0.12
0.50 0.49 0.45 0.42 0.42 0.41 0.38 0.35 0.34 0.30 0.26 0.27 0.28 0.31 0.37 0.39 0.41 0.42 0.45 0.47 0.52 0.58 0.68 0.74 0.72 0.63 0.54 0.46 0.43 0.35 0.30 0.34 0.23 0.18 0.14 0.13 0.14 0.13 0.11 0.09 0.08 0.08 0.06
0.45 0.46 0.42 0.38 0.32 0.29 0.27 0.29 0.31 0.26 0.22 0.22 0.23 0.25 0.28 0.29 0.30 0.31 0.32 0.34 0.40 0.49 0.58 0.62 0.57 0.49 0.42 0.35 0.39 0.38 0.32 0.30 0.25 0.16 0.15 0.12 0.11 0.08 0.05 0.04 0.05 0.05 0.05
0.38 0.37 0.33 0.31 0.27 0.24 0.24 0.25 0.26 0.25 0.24 0.22 0.20 0.19 0.22 0.25 0.27 0.26 0.26 0.30 0.35 0.43 0.46 0.48 0.45 0.37 0.32 0.35 0.38 0.36 0.33 0.28 0.23 0.17 0.18 0.15 0.15 0.18 0.18 0.13 0.08 0.06 0.05
0.31 0.29 0.27 0.27 0.25 0.22 0.24 0.23 0.21 0.25 0.26 0.25 0.22 0.19 0.18 0.18 0.18 0.18 0.20 0.25 0.32 0.34 0.36 0.38 0.37 0.37 0.34 0.36 0.40 0.38 0.38 0.38 0.34 0.23 0.25 0.20 0.16 0.24 0.26 0.23 0.14 0.08 0.06
0.31 0.27 0.24 0.24 0.26 0.25 0.23 0.20 0.19 0.24 0.27 0.28 0.25 0.22 0.17 0.13 0.15 0.18 0.17 0.17 0.21 0.22 0.28 0.36 0.40 0.39 0.38 0.40 0.48 0.47 0.47 0.47 0.43 0.33 0.37 0.34 0.25 0.29 0.21 0.15 0.13 0.11 0.08
0.30 0.28 0.26 0.25 0.25 0.23 0.22 0.19 0.18 0.19 0.24 0.25 0.23 0.22 0.21 0.19 0.16 0.16 0.14 0.13 0.18 0.23 0.26 0.29 0.37 0.36 0.31 0.34 0.43 0.48 0.47 0.47 0.46 0.43 0.47 0.49 0.34 0.30 0.20 0.28 0.25 0.17 0.12
0.29 0.25 0.24 0.24 0.26 0.24 0.19 0.16 0.14 0.15 0.18 0.16 0.15 0.18 0.18 0.18 0.16 0.16 0.14 0.17 0.21 0.25 0.21 0.25 0.30 0.33 0.37 0.41 0.44 0.47 0.54 0.61 0.59 0.52 0.53 0.56 0.47 0.38 0.30 0.36 0.33 0.23 0.21
0.30 0.23 0.22 0.25 0.25 0.25 0.18 0.13 0.11 0.11 0.14 0.13 0.14 0.15 0.16 0.14 0.12 0.11 0.10 0.18 0.27 0.25 0.25 0.30 0.46 0.62 0.69 0.66 0.56 0.54 0.63 0.67 0.68 0.72 0.64 0.63 0.59 0.48 0.45 0.38 0.39 0.40 0.44

GEFSMA_prec_meanprecacc_126.txt.gz
Total_Precipitation_Accumulation
0.82 1.03 1.08 1.21 1.02 1.01 0.94 0.81 0.67 0.61 0.52 0.45 0.43 0.48 0.55 0.57 0.63 0.72 0.73 0.70 0.74 0.90 1.18 1.27 1.14 1.08 1.04 0.97 0.91 0.86 0.81 0.79 0.71 0.60 0.49 0.40 0.37 0.36 0.38 0.40 0.41 0.39 0.39
1.13 1.43 1.48 1.46 1.32 1.34 1.37 1.37 1.23 1.03 0.85 0.80 0.75 0.76 0.79 0.86 0.94 0.97 0.97 0.88 0.81 0.90 1.14 1.31 1.34 1.37 1.29 1.14 1.02 0.95 0.94 0.91 0.85 0.72 0.63 0.56 0.52 0.49 0.48 0.46 0.45 0.42 0.38
1.49 1.57 1.83 1.82 1.69 1.66 1.58 1.50 1.62 1.60 1.35 1.16 1.05 1.00 1.10 1.13 1.13 1.17 1.27 1.30 1.11 1.01 1.07 1.19 1.29 1.33 1.33 1.28 1.22 1.14 1.12 0.99 0.89 0.78 0.72 0.69 0.65 0.65 0.61 0.56 0.53 0.50 0.46
1.88 1.88 1.92 1.96 1.89 1.86 2.03 2.07 1.99 1.96 1.89 1.67 1.49 1.39 1.37 1.43 1.32 1.32 1.30 1.41 1.49 1.24 1.04 1.01 1.05 1.12 1.26 1.41 1.48 1.49 1.37 1.20 1.08 0.95 0.87 0.81 0.77 0.70 0.65 0.62 0.60 0.60 0.56
2.33 2.41 2.45 2.50 2.38 2.39 2.36 2.26 2.33 2.28 2.20 1.99 1.66 1.53 1.42 1.44 1.37 1.22 1.21 1.33 1.39 1.28 1.15 1.00 0.98 1.07 1.24 1.43 1.55 1.60 1.51 1.31 1.18 1.09 1.04 0.96 0.86 0.77 0.69 0.65 0.65 0.68 0.69
3.04 3.06 3.00 3.02 2.94 2.78 2.65 2.60 2.52 2.31 2.19 1.96 1.65 1.46 1.32 1.20 1.17 1.18 1.07 1.04 1.06 0.99 1.01 1.00 0.96 0.95 1.08 1.24 1.37 1.47 1.42 1.34 1.27 1.20 1.07 0.99 0.92 0.84 0.76 0.70 0.71 0.76 0.77
3.57 3.40 3.28 3.29 3.13 2.93 2.76 2.64 2.51 2.41 2.12 1.89 1.82 1.58 1.26 1.08 1.01 0.95 0.94 0.90 0.85 0.83 0.90 0.90 0.87 0.84 0.89 1.06 1.10 1.18 1.24 1.26 1.24 1.21 1.13 1.10 1.01 0.91 0.85 0.81 0.80 0.84 0.82
4.00 3.77 3.70 3.54 3.29 3.09 2.85 2.61 2.44 2.39 2.18 2.01 1.97 1.89 1.52 1.19 0.91 0.73 0.73 0.73 0.69 0.67 0.67 0.65 0.65 0.68 0.72 0.79 0.89 1.04 1.09 1.16 1.21 1.26 1.24 1.15 1.07 0.99 0.94 0.92 0.91 0.91 0.91
4.42 4.16 4.02 3.75 3.47 3.14 2.86 2.61 2.40 2.30 2.21 2.08 1.93 1.97 1.75 1.40 1.04 0.78 0.62 0.58 0.58 0.61 0.61 0.58 0.58 0.58 0.63 0.71 0.85 0.92 0.93 0.95 1.00 1.05 1.08 1.12 1.11 1.06 1.03 1.04 1.06 1.08 1.12
3.80 3.68 3.54 3.36 3.12 2.80 2.57 2.37 2.17 2.06 2.09 1.98 1.84 1.67 1.57 1.35 1.17 0.96 0.72 0.59 0.57 0.62 0.64 0.63 0.61 0.61 0.65 0.69 0.81 0.89 0.85 0.81 0.81 0.81 0.83 0.85 0.86 0.85 0.86 0.88 0.90 0.96 1.05
3.17 2.94 2.79 2.67 2.51 2.32 2.14 2.02 1.94 1.83 1.76 1.67 1.55 1.47 1.41 1.27 1.07 0.93 0.83 0.71 0.70 0.70 0.70 0.70 0.70 0.72 0.74 0.74 0.72 0.78 0.78 0.70 0.68 0.68 0.67 0.66 0.66 0.67 0.71 0.73 0.75 0.81 0.88
2.53 2.17 1.98 1.85 1.75 1.65 1.62 1.60 1.56 1.51 1.46 1.41 1.34 1.25 1.20 1.18 1.10 1.02 0.91 0.82 0.85 0.84 0.78 0.73 0.70 0.71 0.71 0.71 0.73 0.80 0.66 0.62 0.61 0.60 0.64 0.67 0.65 0.63 0.65 0.69 0.72 0.77 0.80
2.05 1.70 1.50 1.40 1.36 1.32 1.25 1.26 1.26 1.22 1.20 1.20 1.19 1.13 1.11 1.09 1.07 1.07 1.12 1.08 0.94 0.82 0.75 0.73 0.68 0.64 0.62 0.64 0.71 0.78 0.63 0.60 0.62 0.65 0.65 0.63 0.62 0.60 0.59 0.58 0.60 0.62 0.65
1.60 1.39 1.25 1.16 1.03 0.91 0.88 0.91 0.95 0.97 0.97 1.04 1.08 1.09 1.12 1.11 1.08 1.03 1.04 1.10 1.16 1.09 0.92 0.83 0.78 0.72 0.67 0.66 0.75 0.73 0.61 0.68 0.64 0.65 0.62 0.56 0.52 0.49 0.48 0.47 0.47 0.47 0.48
1.13 0.99 0.88 0.80 0.75 0.68 0.65 0.68 0.72 0.75 0.79 0.85 0.91 0.98 1.08 1.15 1.17 1.12 1.09 1.09 1.16 1.24 1.18 1.01 0.93 0.86 0.76 0.72 0.81 0.66 0.66 0.78 0.69 0.61 0.55 0.49 0.43 0.38 0.35 0.33 0.32 0.32 0.33
0.86 0.74 0.62 0.55 0.55 0.56 0.56 0.52 0.54 0.57 0.60 0.65 0.72 0.80 0.90 1.00 1.12 1.17 1.22 1.20 1.15 1.15 1.17 1.04 0.95 0.91 0.81 0.73 0.82 0.71 0.70 0.71 0.59 0.48 0.40 0.36 0.34 0.32 0.29 0.27 0.27 0.27 0.26
0.79 0.69 0.61 0.58 0.55 0.50 0.48 0.48 0.47 0.49 0.55 0.57 0.55 0.61 0.69 0.75 0.85 0.94 0.99 1.01 1.02 1.01 1.06 1.02 0.94 0.89 0.85 0.79 0.76 0.67 0.62 0.60 0.53 0.44 0.34 0.32 0.30 0.27 0.25 0.25 0.25 0.24 0.23
0.60 0.56 0.50 0.50 0.50 0.47 0.45 0.43 0.41 0.40 0.39 0.40 0.41 0.45 0.52 0.54 0.61 0.65 0.70 0.75 0.79 0.82 0.86 0.95 0.96 0.87 0.81 0.75 0.69 0.60 0.46 0.41 0.43 0.40 0.34 0.31 0.30 0.28 0.27 0.25 0.23 0.20 0.17
0.50 0.50 0.46 0.43 0.43 0.42 0.39 0.37 0.36 0.31 0.27 0.28 0.29 0.32 0.38 0.40 0.43 0.45 0.49 0.51 0.56 0.65 0.77 0.87 0.90 0.83 0.75 0.65 0.60 0.49 0.41 0.45 0.34 0.30 0.27 0.26 0.27 0.25 0.22 0.17 0.14 0.13 0.10
0.46 0.47 0.43 0.39 0.33 0.30 0.28 0.30 0.32 0.27 0.24 0.23 0.25 0.26 0.29 0.31 0.32 0.34 0.36 0.39 0.45 0.56 0.66 0.73 0.71 0.66 0.62 0.54 0.55 0.51 0.44 0.41 0.35 0.25 0.22 0.19 0.17 0.15 0.12 0.11 0.10 0.09 0.08
0.40 0.38 0.35 0.33 0.28 0.25 0.25 0.26 0.27 0.26 0.25 0.23 0.21 0.20 0.23 0.27 0.30 0.30 0.30 0.35 0.42 0.51 0.55 0.57 0.56 0.50 0.46 0.49 0.52 0.47 0.43 0.38 0.31 0.24 0.25 0.20 0.18 0.20 0.20 0.15 0.10 0.07 0.05
0.34 0.33 0.29 0.28 0.27 0.24 0.26 0.25 0.23 0.26 0.28 0.27 0.23 0.20 0.20 0.20 0.22 0.24 0.26 0.32 0.38 0.41 0.43 0.45 0.45 0.44 0.41 0.44 0.49 0.46 0.45 0.47 0.42 0.30 0.31 0.24 0.19 0.26 0.28 0.24 0.16 0.09 0.06
0.34 0.31 0.27 0.26 0.29 0.27 0.26 0.23 0.22 0.26 0.29 0.29 0.27 0.25 0.19 0.16 0.20 0.24 0.24 0.24 0.28 0.29 0.35 0.42 0.45 0.44 0.43 0.47 0.55 0.54 0.52 0.52 0.48 0.37 0.40 0.38 0.28 0.31 0.23 0.16 0.14 0.12 0.09
0.35 0.32 0.29 0.27 0.29 0.28 0.26 0.24 0.22 0.22 0.27 0.27 0.25 0.25 0.26 0.24 0.20 0.21 0.18 0.19 0.24 0.30 0.33 0.35 0.43 0.42 0.37 0.40 0.49 0.53 0.51 0.50 0.49 0.46 0.49 0.50 0.36 0.31 0.21 0.29 0.25 0.17 0.12
0.34 0.30 0.29 0.28 0.30 0.29 0.26 0.23 0.20 0.19 0.22 0.19 0.18 0.21 0.21 0.21 0.21 0.23 0.20 0.23 0.27 0.31 0.28 0.32 0.36 0.38 0.42 0.46 0.47 0.49 0.56 0.63 0.62 0.55 0.55 0.57 0.49 0.39 0.31 0.37 0.34 0.23 0.21
0.33 0.26 0.27 0.29 0.30 0.30 0.24 0.19 0.17 0.14 0.16 0.15 0.16 0.18 0.19 0.16 0.15 0.15 0.15 0.22 0.31 0.29 0.29 0.34 0.49 0.66 0.71 0.69 0.58 0.56 0.65 0.70 0.71 0.75 0.66 0.64 0.60 0.49 0.46 0.39 0.39 0.40 0.44

GEFSMA_prec_meanprecacc_132.txt.gz
Total_Precipitation_Accumulation
0.96 1.17 1.20 1.33 1.13 1.13 1.06 0.94 0.76 0.68 0.58 0.50 0.48 0.51 0.58 0.60 0.66 0.77 0.79 0.73 0.76 0.94 1.23 1.32 1.21 1.16 1.12 1.05 0.99 0.94 0.89 0.85 0.77 0.66 0.54 0.45 0.41 0.40 0.41 0.44 0.44 0.42 0.41
1.31 1.62 1.63 1.59 1.43 1.47 1.55 1.55 1.37 1.15 0.95 0.89 0.81 0.80 0.83 0.90 0.98 1.01 1.04 0.94 0.85 0.93 1.17 1.35 1.42 1.46 1.39 1.23 1.11 1.03 1.02 1.00 0.92 0.80 0.70 0.62 0.56 0.52 0.50 0.49 0.48 0.45 0.40
1.73 1.76 2.00 1.96 1.82 1.77 1.70 1.63 1.78 1.75 1.45 1.24 1.11 1.06 1.14 1.17 1.18 1.23 1.33 1.37 1.17 1.06 1.10 1.23 1.33 1.39 1.40 1.39 1.32 1.23 1.23 1.10 0.99 0.87 0.79 0.75 0.70 0.68 0.64 0.58 0.56 0.53 0.48
2.11 2.07 2.09 2.12 2.04 2.00 2.16 2.20 2.12 2.10 2.01 1.77 1.57 1.44 1.42 1.49 1.38 1.38 1.38 1.50 1.57 1.32 1.09 1.05 1.09 1.15 1.30 1.48 1.59 1.61 1.50 1.33 1.18 1.05 0.96 0.88 0.83 0.76 0.69 0.65 0.63 0.63 0.59
2.58 2.60 2.61 2.68 2.55 2.56 2.52 2.40 2.53 2.45 2.35 2.12 1.77 1.61 1.46 1.50 1.45 1.29 1.30 1.42 1.49 1.37 1.23 1.06 1.02 1.10 1.29 1.50 1.64 1.74 1.66 1.46 1.33 1.23 1.16 1.07 0.95 0.85 0.76 0.71 0.70 0.72 0.73
3.27 3.27 3.19 3.20 3.10 2.98 2.84 2.78 2.70 2.48 2.35 2.10 1.72 1.54 1.39 1.26 1.24 1.26 1.15 1.14 1.16 1.05 1.07 1.06 1.03 1.00 1.14 1.31 1.49 1.64 1.62 1.52 1.43 1.35 1.22 1.15 1.08 0.99 0.87 0.80 0.78 0.81 0.82
3.76 3.58 3.46 3.48 3.31 3.13 2.94 2.81 2.68 2.56 2.27 2.03 1.94 1.68 1.35 1.17 1.07 1.02 1.01 0.98 0.91 0.88 0.95 0.97 0.94 0.93 0.97 1.16 1.23 1.35 1.47 1.50 1.49 1.43 1.34 1.30 1.21 1.09 1.00 0.93 0.90 0.91 0.89
4.16 3.92 3.87 3.73 3.47 3.28 3.03 2.79 2.61 2.55 2.32 2.14 2.11 2.02 1.63 1.30 1.00 0.78 0.78 0.78 0.75 0.75 0.76 0.73 0.73 0.76 0.81 0.93 1.04 1.20 1.33 1.44 1.47 1.47 1.44 1.35 1.26 1.17 1.12 1.09 1.07 1.05 1.02
4.58 4.33 4.17 3.90 3.62 3.31 3.03 2.76 2.55 2.45 2.36 2.22 2.05 2.11 1.89 1.55 1.17 0.88 0.69 0.64 0.65 0.70 0.71 0.68 0.65 0.66 0.71 0.82 0.99 1.07 1.12 1.12 1.15 1.19 1.23 1.28 1.28 1.26 1.23 1.23 1.23 1.24 1.26
3.92 3.78 3.66 3.48 3.24 2.93 2.71 2.49 2.29 2.19 2.24 2.12 1.98 1.82 1.70 1.49 1.33 1.10 0.83 0.70 0.68 0.71 0.73 0.71 0.68 0.68 0.71 0.76 0.91 1.01 1.00 0.94 0.93 0.93 0.95 0.98 1.02 1.05 1.07 1.10 1.10 1.14 1.20
3.23 3.01 2.88 2.76 2.60 2.43 2.26 2.14 2.06 1.94 1.88 1.78 1.67 1.58 1.52 1.40 1.21 1.09 0.97 0.84 0.81 0.80 0.79 0.77 0.77 0.78 0.78 0.80 0.79 0.88 0.91 0.82 0.79 0.80 0.80 0.79 0.82 0.89 0.93 0.92 0.91 0.96 1.04
2.57 2.21 2.02 1.92 1.82 1.73 1.70 1.68 1.66 1.62 1.56 1.52 1.45 1.37 1.31 1.29 1.22 1.16 1.04 0.96 0.97 0.93 0.87 0.81 0.77 0.78 0.77 0.76 0.79 0.89 0.75 0.71 0.70 0.69 0.75 0.80 0.80 0.80 0.80 0.84 0.88 0.91 0.95
2.08 1.73 1.53 1.44 1.41 1.36 1.29 1.30 1.31 1.28 1.27 1.28 1.27 1.23 1.21 1.18 1.17 1.17 1.23 1.18 1.02 0.88 0.81 0.80 0.75 0.71 0.69 0.69 0.77 0.86 0.71 0.68 0.70 0.74 0.75 0.75 0.76 0.77 0.75 0.75 0.77 0.81 0.85
1.64 1.42 1.27 1.19 1.06 0.94 0.91 0.95 0.99 1.01 1.01 1.09 1.14 1.16 1.19 1.18 1.14 1.10 1.12 1.19 1.23 1.15 0.98 0.88 0.83 0.78 0.75 0.74 0.83 0.82 0.69 0.78 0.76 0.79 0.78 0.73 0.70 0.67 0.64 0.62 0.61 0.63 0.65
1.16 1.02 0.90 0.82 0.77 0.71 0.69 0.72 0.76 0.79 0.83 0.90 0.96 1.03 1.13 1.20 1.21 1.17 1.16 1.17 1.24 1.30 1.23 1.05 0.98 0.93 0.85 0.83 0.95 0.75 0.74 0.90 0.81 0.75 0.71 0.67 0.62 0.56 0.50 0.46 0.44 0.43 0.43
0.88 0.75 0.64 0.57 0.56 0.58 0.59 0.56 0.58 0.60 0.63 0.69 0.76 0.83 0.93 1.03 1.15 1.22 1.28 1.26 1.23 1.22 1.22 1.07 1.01 0.99 0.89 0.82 0.97 0.81 0.80 0.83 0.70 0.60 0.53 0.49 0.47 0.43 0.40 0.38 0.37 0.36 0.35
0.81 0.71 0.63 0.59 0.57 0.53 0.50 0.51 0.50 0.52 0.57 0.59 0.58 0.63 0.71 0.78 0.88 0.97 1.03 1.06 1.08 1.08 1.11 1.07 1.00 0.97 0.92 0.87 0.86 0.75 0.70 0.67 0.62 0.54 0.43 0.39 0.38 0.35 0.33 0.33 0.33 0.32 0.32
0.62 0.58 0.52 0.52 0.53 0.50 0.48 0.47 0.44 0.43 0.42 0.42 0.43 0.48 0.54 0.56 0.64 0.68 0.73 0.79 0.84 0.88 0.92 1.02 1.04 0.95 0.90 0.84 0.77 0.68 0.53 0.48 0.50 0.48 0.40 0.36 0.35 0.35 0.34 0.33 0.32 0.29 0.25
0.52 0.52 0.48 0.47 0.46 0.45 0.42 0.40 0.39 0.34 0.30 0.31 0.32 0.35 0.40 0.42 0.46 0.47 0.51 0.54 0.60 0.69 0.83 0.93 0.97 0.91 0.84 0.74 0.67 0.56 0.48 0.50 0.39 0.36 0.32 0.31 0.31 0.30 0.27 0.24 0.21 0.19 0.15
0.48 0.49 0.45 0.41 0.35 0.32 0.30 0.33 0.35 0.30 0.27 0.26 0.27 0.28 0.31 0.33 0.34 0.37 0.39 0.42 0.49 0.61 0.73 0.81 0.79 0.73 0.69 0.61 0.61 0.57 0.49 0.45 0.39 0.29 0.27 0.23 0.22 0.18 0.16 0.14 0.13 0.13 0.11
0.42 0.40 0.36 0.34 0.30 0.27 0.27 0.28 0.30 0.29 0.27 0.25 0.23 0.22 0.24 0.28 0.31 0.32 0.32 0.38 0.46 0.57 0.63 0.65 0.63 0.56 0.52 0.55 0.57 0.51 0.47 0.42 0.35 0.28 0.28 0.23 0.21 0.23 0.22 0.17 0.12 0.09 0.07
0.37 0.35 0.32 0.30 0.29 0.25 0.27 0.27 0.25 0.30 0.30 0.29 0.25 0.22 0.21 0.21 0.23 0.26 0.28 0.35 0.43 0.47 0.49 0.51 0.51 0.50 0.46 0.48 0.52 0.50 0.49 0.50 0.47 0.35 0.35 0.28 0.21 0.29 0.30 0.27 0.17 0.10 0.07
0.38 0.34 0.29 0.28 0.31 0.30 0.27 0.24 0.24 0.30 0.33 0.33 0.30 0.27 0.22 0.18 0.24 0.27 0.27 0.29 0.33 0.34 0.39 0.47 0.50 0.49 0.48 0.51 0.59 0.58 0.57 0.57 0.53 0.41 0.44 0.41 0.31 0.34 0.25 0.17 0.16 0.13 0.10
0.39 0.36 0.31 0.29 0.30 0.29 0.27 0.25 0.25 0.27 0.33 0.32 0.29 0.29 0.29 0.28 0.26 0.25 0.21 0.23 0.29 0.34 0.36 0.40 0.49 0.48 0.42 0.46 0.55 0.59 0.57 0.55 0.53 0.49 0.51 0.53 0.38 0.33 0.22 0.30 0.26 0.18 0.13
0.38 0.33 0.31 0.31 0.32 0.31 0.28 0.26 0.25 0.25 0.28 0.24 0.21 0.24 0.24 0.25 0.25 0.26 0.23 0.27 0.31 0.37 0.34 0.38 0.42 0.43 0.46 0.50 0.52 0.54 0.61 0.67 0.65 0.58 0.57 0.59 0.50 0.40 0.32 0.38 0.34 0.23 0.21
0.37 0.30 0.30 0.32 0.32 0.33 0.28 0.24 0.24 0.21 0.22 0.19 0.19 0.21 0.23 0.19 0.18 0.17 0.18 0.27 0.37 0.36 0.34 0.38 0.52 0.68 0.74 0.71 0.61 0.60 0.69 0.74 0.75 0.79 0.68 0.65 0.62 0.51 0.47 0.39 0.39 0.40 0.44

GEFSMA_prec_meanprecacc_138.txt.gz
Total_Precipitation_Accumulation
1.11 1.38 1.43 1.56 1.32 1.27 1.16 1.01 0.84 0.76 0.66 0.59 0.56 0.60 0.68 0.69 0.76 0.88 0.90 0.86 0.85 1.02 1.32 1.41 1.29 1.23 1.18 1.10 1.03 0.97 0.91 0.88 0.79 0.68 0.56 0.47 0.43 0.42 0.44 0.46 0.47 0.44 0.42
1.51 1.84 1.92 1.84 1.64 1.65 1.72 1.69 1.48 1.24 1.04 0.97 0.89 0.88 0.93 0.97 1.05 1.07 1.11 1.03 0.92 0.99 1.24 1.43 1.50 1.54 1.46 1.29 1.15 1.07 1.05 1.02 0.95 0.83 0.73 0.66 0.59 0.55 0.53 0.51 0.50 0.47 0.42
1.97 2.03 2.28 2.24 2.04 1.96 1.90 1.83 1.92 1.88 1.56 1.33 1.20 1.15 1.24 1.26 1.26 1.31 1.40 1.42 1.22 1.11 1.15 1.29 1.41 1.45 1.47 1.46 1.37 1.28 1.27 1.14 1.03 0.93 0.86 0.80 0.74 0.72 0.67 0.60 0.57 0.54 0.50
2.32 2.34 2.35 2.34 2.25 2.20 2.35 2.40 2.29 2.24 2.14 1.89 1.68 1.56 1.52 1.57 1.45 1.44 1.44 1.55 1.62 1.36 1.13 1.10 1.14 1.21 1.38 1.58 1.67 1.68 1.57 1.39 1.24 1.12 1.05 0.96 0.88 0.79 0.71 0.67 0.65 0.64 0.61
2.72 2.80 2.83 2.84 2.69 2.71 2.64 2.52 2.66 2.56 2.47 2.24 1.88 1.72 1.58 1.60 1.51 1.35 1.34 1.46 1.53 1.41 1.28 1.11 1.06 1.15 1.35 1.59 1.74 1.84 1.76 1.56 1.42 1.33 1.26 1.17 1.04 0.90 0.80 0.74 0.73 0.75 0.75
3.47 3.47 3.40 3.37 3.22 3.09 2.95 2.88 2.81 2.58 2.43 2.19 1.82 1.66 1.51 1.38 1.32 1.32 1.19 1.18 1.20 1.11 1.14 1.12 1.10 1.06 1.20 1.38 1.59 1.76 1.73 1.63 1.54 1.46 1.32 1.26 1.18 1.07 0.97 0.88 0.85 0.86 0.86
3.95 3.76 3.62 3.64 3.45 3.26 3.06 2.91 2.78 2.67 2.37 2.13 2.05 1.79 1.45 1.26 1.16 1.08 1.07 1.04 0.98 0.96 1.04 1.05 1.00 0.96 1.01 1.20 1.29 1.43 1.56 1.60 1.61 1.59 1.51 1.45 1.34 1.20 1.11 1.06 1.04 1.03 0.98
4.29 4.09 4.02 3.87 3.61 3.41 3.17 2.91 2.73 2.67 2.45 2.25 2.22 2.15 1.72 1.37 1.08 0.84 0.86 0.88 0.86 0.86 0.86 0.84 0.81 0.80 0.85 0.97 1.08 1.26 1.41 1.55 1.61 1.64 1.59 1.48 1.40 1.29 1.23 1.21 1.21 1.19 1.15
4.66 4.47 4.33 4.04 3.76 3.46 3.18 2.91 2.70 2.58 2.48 2.34 2.16 2.23 1.99 1.62 1.23 0.95 0.81 0.76 0.78 0.84 0.83 0.79 0.75 0.74 0.77 0.87 1.04 1.13 1.19 1.20 1.25 1.32 1.34 1.39 1.40 1.36 1.32 1.32 1.34 1.34 1.37
3.97 3.88 3.81 3.63 3.38 3.07 2.86 2.63 2.43 2.31 2.38 2.27 2.13 1.94 1.80 1.58 1.40 1.16 0.92 0.81 0.79 0.82 0.85 0.82 0.79 0.78 0.80 0.83 0.95 1.06 1.04 0.98 1.00 1.01 1.02 1.04 1.09 1.12 1.15 1.19 1.23 1.27 1.31
3.30 3.09 2.97 2.85 2.70 2.54 2.38 2.27 2.18 2.05 1.99 1.90 1.79 1.70 1.61 1.49 1.29 1.14 1.01 0.89 0.87 0.88 0.90 0.89 0.90 0.88 0.85 0.86 0.83 0.92 0.94 0.85 0.83 0.84 0.84 0.83 0.87 0.96 1.04 1.04 1.03 1.08 1.16
2.67 2.32 2.13 2.01 1.91 1.83 1.82 1.81 1.79 1.73 1.66 1.61 1.55 1.46 1.38 1.36 1.29 1.22 1.09 1.00 1.01 0.97 0.93 0.90 0.88 0.89 0.88 0.84 0.84 0.93 0.78 0.74 0.73 0.72 0.78 0.83 0.84 0.86 0.91 0.97 1.03 1.07 1.09
2.14 1.81 1.61 1.51 1.46 1.42 1.36 1.38 1.39 1.35 1.34 1.34 1.33 1.29 1.28 1.24 1.23 1.24 1.30 1.23 1.06 0.90 0.84 0.85 0.81 0.78 0.77 0.78 0.83 0.91 0.75 0.72 0.74 0.78 0.79 0.79 0.80 0.82 0.82 0.83 0.87 0.92 0.95
1.68 1.45 1.30 1.21 1.08 0.96 0.93 0.98 1.03 1.04 1.04 1.11 1.16 1.20 1.24 1.21 1.18 1.15 1.19 1.25 1.26 1.17 1.00 0.90 0.87 0.84 0.81 0.81 0.90 0.89 0.75 0.84 0.81 0.84 0.83 0.78 0.76 0.73 0.69 0.68 0.68 0.70 0.73
1.17 1.03 0.91 0.83 0.79 0.71 0.70 0.73 0.77 0.81 0.84 0.91 0.97 1.05 1.15 1.22 1.25 1.21 1.20 1.21 1.27 1.32 1.25 1.06 1.00 0.95 0.88 0.87 1.02 0.81 0.80 0.97 0.88 0.82 0.77 0.73 0.68 0.62 0.56 0.52 0.49 0.47 0.48
0.89 0.76 0.65 0.57 0.57 0.59 0.60 0.57 0.58 0.61 0.64 0.70 0.77 0.85 0.95 1.05 1.18 1.25 1.31 1.30 1.26 1.25 1.24 1.09 1.03 1.01 0.92 0.87 1.04 0.88 0.87 0.91 0.76 0.65 0.59 0.55 0.52 0.48 0.44 0.42 0.41 0.40 0.39
0.81 0.71 0.63 0.60 0.57 0.53 0.51 0.52 0.51 0.53 0.58 0.61 0.60 0.66 0.75 0.81 0.92 1.00 1.06 1.08 1.12 1.11 1.14 1.09 1.03 1.00 0.96 0.92 0.91 0.81 0.75 0.72 0.68 0.60 0.48 0.44 0.41 0.38 0.36 0.35 0.35 0.34 0.34
0.62 0.58 0.52 0.53 0.53 0.50 0.48 0.47 0.45 0.44 0.43 0.44 0.45 0.50 0.56 0.59 0.66 0.70 0.75 0.80 0.85 0.90 0.94 1.04 1.08 1.00 0.95 0.89 0.82 0.73 0.59 0.53 0.54 0.53 0.44 0.40 0.39 0.38 0.37 0.35 0.34 0.31 0.27
0.53 0.52 0.48 0.47 0.46 0.46 0.43 0.41 0.40 0.35 0.32 0.33 0.35 0.38 0.42 0.44 0.47 0.49 0.53 0.55 0.61 0.70 0.84 0.96 1.02 0.97 0.90 0.79 0.71 0.60 0.52 0.54 0.42 0.40 0.36 0.35 0.35 0.33 0.30 0.26 0.23 0.20 0.17
0.49 0.49 0.46 0.41 0.35 0.32 0.30 0.33 0.36 0.31 0.28 0.27 0.28 0.30 0.33 0.35 0.36 0.38 0.39 0.43 0.50 0.62 0.75 0.84 0.84 0.79 0.74 0.65 0.65 0.60 0.53 0.48 0.42 0.31 0.29 0.25 0.25 0.21 0.18 0.16 0.15 0.14 0.13
0.42 0.40 0.36 0.34 0.30 0.27 0.27 0.29 0.31 0.29 0.28 0.26 0.24 0.23 0.26 0.30 0.34 0.34 0.34 0.40 0.47 0.58 0.66 0.70 0.69 0.62 0.56 0.58 0.60 0.55 0.50 0.45 0.37 0.29 0.29 0.24 0.23 0.25 0.25 0.19 0.14 0.11 0.09
0.38 0.36 0.32 0.30 0.29 0.26 0.27 0.27 0.26 0.30 0.32 0.32 0.27 0.23 0.23 0.23 0.27 0.29 0.31 0.37 0.45 0.49 0.52 0.55 0.55 0.54 0.49 0.52 0.56 0.53 0.52 0.52 0.48 0.35 0.35 0.28 0.22 0.31 0.32 0.28 0.20 0.12 0.09
0.39 0.35 0.30 0.28 0.31 0.30 0.28 0.24 0.25 0.31 0.34 0.35 0.33 0.30 0.24 0.21 0.27 0.30 0.30 0.31 0.36 0.37 0.42 0.49 0.52 0.51 0.51 0.56 0.63 0.62 0.60 0.59 0.54 0.41 0.44 0.42 0.32 0.35 0.26 0.19 0.18 0.14 0.11
0.39 0.36 0.32 0.30 0.30 0.29 0.28 0.26 0.26 0.28 0.35 0.34 0.32 0.32 0.31 0.31 0.29 0.28 0.24 0.26 0.31 0.36 0.39 0.42 0.52 0.51 0.46 0.50 0.59 0.62 0.59 0.56 0.54 0.50 0.52 0.54 0.39 0.35 0.24 0.31 0.27 0.18 0.13
0.39 0.34 0.33 0.32 0.33 0.31 0.29 0.26 0.26 0.27 0.30 0.26 0.24 0.27 0.27 0.27 0.26 0.29 0.26 0.30 0.33 0.38 0.37 0.42 0.46 0.47 0.50 0.53 0.55 0.57 0.63 0.68 0.66 0.59 0.58 0.60 0.51 0.41 0.33 0.39 0.35 0.24 0.21
0.39 0.32 0.32 0.34 0.34 0.35 0.30 0.26 0.26 0.23 0.25 0.22 0.22 0.24 0.25 0.21 0.19 0.19 0.20 0.28 0.40 0.40 0.38 0.41 0.56 0.72 0.77 0.74 0.64 0.63 0.72 0.76 0.76 0.80 0.69 0.66 0.63 0.51 0.48 0.40 0.39 0.40 0.44

GEFSMA_prec_meanprecacc_144.txt.gz
Total_Precipitation_Accumulation
1.14 1.42 1.47 1.60 1.36 1.31 1.21 1.06 0.88 0.80 0.69 0.62 0.61 0.64 0.72 0.72 0.78 0.90 0.92 0.89 0.90 1.09 1.42 1.53 1.42 1.37 1.29 1.19 1.11 1.03 0.96 0.92 0.84 0.73 0.59 0.50 0.46 0.45 0.47 0.51 0.50 0.46 0.45
1.57 1.93 1.99 1.90 1.69 1.71 1.78 1.75 1.55 1.31 1.09 1.02 0.94 0.92 0.96 1.01 1.09 1.10 1.13 1.06 0.97 1.06 1.33 1.54 1.64 1.70 1.61 1.41 1.25 1.14 1.11 1.07 1.01 0.89 0.78 0.71 0.64 0.60 0.58 0.56 0.54 0.50 0.45
2.02 2.11 2.35 2.30 2.11 2.03 1.97 1.91 2.02 1.96 1.63 1.38 1.26 1.21 1.29 1.32 1.33 1.36 1.44 1.45 1.25 1.17 1.25 1.41 1.54 1.59 1.61 1.60 1.50 1.38 1.35 1.22 1.11 0.99 0.92 0.86 0.80 0.78 0.73 0.66 0.63 0.59 0.54
2.35 2.38 2.41 2.41 2.32 2.28 2.44 2.50 2.40 2.33 2.21 1.94 1.75 1.62 1.57 1.65 1.54 1.51 1.49 1.60 1.65 1.40 1.19 1.19 1.25 1.33 1.49 1.70 1.79 1.82 1.69 1.50 1.34 1.22 1.14 1.04 0.96 0.88 0.80 0.73 0.70 0.69 0.65
2.75 2.83 2.89 2.93 2.78 2.79 2.75 2.63 2.76 2.65 2.55 2.32 1.96 1.79 1.64 1.68 1.60 1.41 1.40 1.51 1.57 1.47 1.35 1.20 1.19 1.27 1.47 1.72 1.88 2.00 1.92 1.71 1.56 1.44 1.37 1.29 1.16 1.03 0.91 0.83 0.80 0.80 0.79
3.51 3.52 3.48 3.47 3.33 3.20 3.06 2.97 2.91 2.68 2.53 2.30 1.92 1.74 1.60 1.46 1.40 1.40 1.26 1.25 1.26 1.17 1.22 1.21 1.19 1.16 1.30 1.48 1.70 1.88 1.87 1.78 1.68 1.57 1.43 1.38 1.29 1.17 1.06 0.99 0.95 0.95 0.94
3.99 3.82 3.70 3.74 3.56 3.38 3.19 3.03 2.91 2.79 2.49 2.24 2.15 1.89 1.54 1.34 1.24 1.16 1.14 1.10 1.04 1.03 1.13 1.13 1.07 1.05 1.08 1.28 1.36 1.50 1.64 1.71 1.75 1.71 1.64 1.57 1.44 1.28 1.20 1.17 1.16 1.15 1.09
4.32 4.12 4.06 3.95 3.71 3.53 3.29 3.04 2.88 2.81 2.56 2.36 2.32 2.24 1.80 1.45 1.15 0.90 0.91 0.93 0.93 0.95 0.96 0.92 0.88 0.88 0.92 1.02 1.12 1.30 1.48 1.64 1.73 1.77 1.73 1.58 1.49 1.39 1.35 1.33 1.32 1.29 1.25
4.69 4.50 4.37 4.09 3.84 3.55 3.27 3.00 2.79 2.69 2.59 2.45 2.26 2.32 2.06 1.67 1.29 1.00 0.85 0.80 0.83 0.91 0.91 0.87 0.82 0.81 0.84 0.92 1.07 1.17 1.25 1.28 1.36 1.44 1.46 1.49 1.48 1.43 1.39 1.39 1.40 1.41 1.44
3.99 3.91 3.84 3.67 3.44 3.16 2.96 2.72 2.51 2.40 2.47 2.35 2.21 2.01 1.87 1.64 1.45 1.20 0.95 0.85 0.83 0.86 0.89 0.87 0.85 0.84 0.84 0.88 0.99 1.10 1.08 1.03 1.08 1.11 1.12 1.12 1.16 1.18 1.21 1.26 1.28 1.33 1.40
3.32 3.11 3.00 2.89 2.75 2.61 2.46 2.38 2.31 2.17 2.11 2.00 1.88 1.78 1.69 1.56 1.35 1.18 1.04 0.92 0.90 0.91 0.92 0.93 0.94 0.92 0.89 0.90 0.88 0.96 0.99 0.90 0.89 0.92 0.92 0.90 0.93 1.03 1.10 1.10 1.09 1.14 1.25
2.68 2.34 2.16 2.05 1.96 1.89 1.89 1.91 1.91 1.85 1.78 1.73 1.66 1.54 1.46 1.44 1.35 1.26 1.13 1.02 1.03 0.99 0.95 0.93 0.91 0.93 0.93 0.89 0.90 0.99 0.86 0.81 0.79 0.79 0.85 0.90 0.90 0.92 0.98 1.05 1.11 1.17 1.22
2.15 1.82 1.64 1.57 1.52 1.50 1.45 1.47 1.49 1.46 1.44 1.45 1.43 1.38 1.35 1.30 1.29 1.28 1.35 1.28 1.09 0.92 0.87 0.87 0.83 0.81 0.83 0.84 0.90 0.98 0.82 0.79 0.80 0.83 0.85 0.85 0.85 0.87 0.88 0.90 0.94 1.01 1.05
1.68 1.46 1.31 1.23 1.12 1.02 1.01 1.06 1.10 1.10 1.10 1.17 1.22 1.26 1.28 1.26 1.23 1.20 1.24 1.30 1.30 1.19 1.02 0.92 0.88 0.86 0.86 0.88 0.98 0.95 0.80 0.90 0.86 0.88 0.87 0.82 0.81 0.78 0.75 0.74 0.74 0.76 0.78
1.18 1.04 0.92 0.83 0.80 0.74 0.74 0.78 0.82 0.83 0.87 0.93 1.00 1.08 1.18 1.25 1.28 1.25 1.25 1.25 1.32 1.36 1.27 1.08 1.01 0.97 0.91 0.93 1.10 0.85 0.84 1.01 0.92 0.86 0.81 0.76 0.72 0.66 0.60 0.57 0.54 0.53 0.52
0.89 0.77 0.65 0.57 0.58 0.60 0.62 0.59 0.61 0.63 0.65 0.71 0.78 0.87 0.97 1.08 1.21 1.27 1.35 1.34 1.30 1.29 1.27 1.10 1.04 1.03 0.94 0.90 1.10 0.91 0.90 0.95 0.80 0.71 0.63 0.58 0.56 0.53 0.50 0.47 0.46 0.44 0.41
0.82 0.71 0.64 0.60 0.57 0.54 0.52 0.54 0.53 0.55 0.59 0.62 0.61 0.66 0.76 0.83 0.93 1.02 1.08 1.12 1.16 1.16 1.17 1.12 1.04 1.03 1.00 0.96 0.95 0.84 0.79 0.76 0.73 0.67 0.54 0.49 0.46 0.43 0.42 0.42 0.41 0.39 0.37
0.63 0.58 0.53 0.53 0.53 0.50 0.49 0.49 0.47 0.45 0.44 0.44 0.45 0.50 0.57 0.61 0.68 0.72 0.77 0.83 0.88 0.93 0.97 1.07 1.10 1.02 0.99 0.93 0.87 0.76 0.62 0.56 0.58 0.59 0.51 0.46 0.44 0.43 0.41 0.41 0.40 0.35 0.29
0.53 0.52 0.48 0.47 0.47 0.46 0.43 0.41 0.41 0.35 0.32 0.33 0.35 0.39 0.44 0.46 0.49 0.50 0.54 0.57 0.63 0.72 0.86 0.98 1.04 1.00 0.93 0.85 0.79 0.65 0.57 0.58 0.45 0.45 0.41 0.40 0.41 0.39 0.36 0.31 0.28 0.26 0.21
0.49 0.50 0.46 0.42 0.35 0.32 0.30 0.33 0.36 0.32 0.28 0.27 0.29 0.31 0.34 0.36 0.38 0.40 0.41 0.44 0.51 0.64 0.77 0.86 0.86 0.82 0.79 0.71 0.71 0.65 0.57 0.52 0.44 0.32 0.31 0.28 0.28 0.26 0.24 0.21 0.19 0.17 0.16
0.42 0.41 0.37 0.35 0.31 0.28 0.28 0.29 0.31 0.29 0.28 0.26 0.24 0.23 0.26 0.30 0.35 0.35 0.35 0.40 0.48 0.60 0.68 0.72 0.71 0.65 0.63 0.63 0.64 0.58 0.53 0.48 0.40 0.31 0.30 0.24 0.24 0.26 0.27 0.24 0.20 0.15 0.10
0.38 0.36 0.33 0.32 0.30 0.26 0.28 0.27 0.26 0.30 0.32 0.32 0.27 0.24 0.24 0.24 0.28 0.30 0.33 0.39 0.47 0.51 0.54 0.56 0.56 0.58 0.55 0.55 0.59 0.57 0.54 0.54 0.50 0.37 0.36 0.29 0.23 0.31 0.33 0.29 0.21 0.14 0.10
0.39 0.35 0.31 0.29 0.32 0.31 0.29 0.25 0.25 0.31 0.34 0.35 0.33 0.30 0.25 0.22 0.28 0.31 0.32 0.34 0.39 0.40 0.44 0.50 0.54 0.55 0.54 0.60 0.68 0.66 0.63 0.61 0.56 0.43 0.46 0.44 0.34 0.37 0.28 0.21 0.19 0.15 0.12
0.39 0.37 0.33 0.31 0.31 0.30 0.29 0.27 0.26 0.28 0.35 0.34 0.33 0.33 0.34 0.33 0.30 0.30 0.26 0.29 0.34 0.38 0.41 0.44 0.54 0.53 0.49 0.54 0.64 0.67 0.62 0.59 0.57 0.53 0.55 0.56 0.41 0.36 0.26 0.32 0.29 0.20 0.15
0.39 0.34 0.33 0.33 0.33 0.32 0.30 0.28 0.27 0.28 0.31 0.27 0.25 0.28 0.28 0.29 0.29 0.32 0.30 0.32 0.35 0.40 0.39 0.45 0.49 0.51 0.55 0.59 0.59 0.61 0.66 0.73 0.70 0.62 0.61 0.62 0.53 0.42 0.34 0.39 0.36 0.25 0.23
0.39 0.32 0.33 0.35 0.35 0.36 0.31 0.28 0.28 0.24 0.26 0.23 0.23 0.24 0.26 0.23 0.21 0.21 0.22 0.31 0.42 0.41 0.39 0.44 0.59 0.76 0.81 0.77 0.68 0.67 0.75 0.80 0.79 0.82 0.71 0.68 0.64 0.52 0.49 0.41 0.40 0.41 0.45

GEFSMA_prec_meanprecacc_150.txt.gz
Total_Precipitation_Accumulation
1.17 1.46 1.52 1.65 1.40 1.36 1.29 1.15 0.98 0.90 0.78 0.69 0.66 0.69 0.76 0.76 0.82 0.94 0.96 0.93 0.95 1.16 1.51 1.66 1.62 1.60 1.50 1.40 1.30 1.18 1.07 1.02 0.92 0.80 0.63 0.54 0.50 0.48 0.51 0.55 0.55 0.51 0.49
1.63 1.98 2.05 1.95 1.74 1.78 1.86 1.84 1.64 1.41 1.20 1.11 1.01 0.99 1.03 1.08 1.15 1.17 1.18 1.10 1.00 1.10 1.40 1.65 1.82 1.95 1.89 1.66 1.43 1.28 1.26 1.21 1.12 0.98 0.85 0.75 0.69 0.65 0.62 0.62 0.61 0.57 0.51
2.09 2.16 2.40 2.36 2.17 2.10 2.04 1.98 2.09 2.05 1.72 1.46 1.33 1.29 1.38 1.39 1.41 1.44 1.50 1.51 1.31 1.21 1.30 1.49 1.67 1.78 1.82 1.79 1.69 1.56 1.53 1.36 1.22 1.10 1.02 0.95 0.87 0.84 0.79 0.73 0.72 0.69 0.63
2.40 2.43 2.46 2.46 2.37 2.33 2.52 2.58 2.48 2.42 2.30 2.04 1.84 1.71 1.65 1.72 1.62 1.57 1.55 1.66 1.71 1.44 1.24 1.24 1.32 1.43 1.63 1.87 1.97 2.00 1.88 1.67 1.48 1.33 1.25 1.15 1.06 0.95 0.87 0.81 0.79 0.79 0.74
2.80 2.89 2.95 2.98 2.83 2.85 2.81 2.70 2.84 2.74 2.64 2.42 2.05 1.87 1.71 1.74 1.66 1.46 1.45 1.56 1.62 1.51 1.41 1.25 1.24 1.34 1.58 1.83 1.99 2.12 2.06 1.87 1.72 1.60 1.51 1.40 1.26 1.12 1.00 0.94 0.92 0.93 0.90
3.57 3.57 3.53 3.52 3.37 3.25 3.11 3.03 2.99 2.77 2.64 2.41 2.00 1.81 1.65 1.50 1.45 1.44 1.30 1.29 1.31 1.21 1.27 1.27 1.27 1.24 1.39 1.58 1.79 1.96 1.96 1.90 1.82 1.70 1.56 1.51 1.41 1.28 1.17 1.11 1.08 1.06 1.04
4.03 3.86 3.74 3.78 3.60 3.42 3.23 3.08 2.98 2.89 2.60 2.36 2.29 2.01 1.61 1.39 1.28 1.20 1.18 1.15 1.09 1.07 1.19 1.20 1.15 1.13 1.17 1.37 1.44 1.57 1.73 1.81 1.85 1.81 1.75 1.69 1.54 1.36 1.27 1.24 1.23 1.21 1.16
4.35 4.15 4.09 3.98 3.75 3.55 3.31 3.09 2.95 2.91 2.68 2.48 2.46 2.37 1.89 1.52 1.19 0.93 0.95 0.98 0.97 1.00 1.03 1.00 0.96 0.97 1.02 1.12 1.20 1.36 1.54 1.70 1.81 1.85 1.81 1.67 1.58 1.46 1.41 1.41 1.39 1.36 1.32
4.70 4.52 4.39 4.12 3.86 3.57 3.30 3.04 2.85 2.78 2.70 2.57 2.39 2.46 2.17 1.76 1.35 1.04 0.88 0.83 0.85 0.93 0.95 0.92 0.89 0.88 0.91 1.00 1.14 1.22 1.29 1.32 1.41 1.52 1.54 1.57 1.56 1.50 1.45 1.46 1.46 1.47 1.50
4.01 3.92 3.86 3.69 3.46 3.19 3.00 2.77 2.57 2.48 2.57 2.46 2.32 2.14 1.98 1.74 1.53 1.27 1.01 0.88 0.85 0.88 0.92 0.90 0.89 0.90 0.91 0.94 1.05 1.15 1.13 1.06 1.12 1.20 1.22 1.21 1.23 1.24 1.27 1.32 1.34 1.38 1.45
3.33 3.12 3.01 2.91 2.77 2.64 2.49 2.42 2.36 2.25 2.20 2.11 1.99 1.88 1.78 1.65 1.44 1.27 1.12 0.98 0.94 0.94 0.96 0.96 0.98 0.98 0.97 0.97 0.93 1.00 1.02 0.93 0.95 1.01 1.01 1.01 1.06 1.13 1.19 1.17 1.15 1.21 1.32
2.70 2.35 2.17 2.07 1.98 1.91 1.92 1.95 1.97 1.93 1.87 1.83 1.77 1.67 1.60 1.56 1.46 1.36 1.21 1.09 1.09 1.03 0.99 0.96 0.95 0.99 1.01 0.97 0.97 1.07 0.91 0.86 0.85 0.86 0.92 0.98 1.00 1.02 1.06 1.11 1.16 1.23 1.30
2.17 1.83 1.65 1.59 1.55 1.52 1.48 1.51 1.55 1.54 1.53 1.53 1.51 1.47 1.47 1.45 1.42 1.40 1.46 1.38 1.16 0.98 0.91 0.93 0.89 0.87 0.89 0.92 1.01 1.07 0.88 0.83 0.84 0.87 0.89 0.90 0.91 0.94 0.96 0.96 0.99 1.07 1.12
1.70 1.48 1.32 1.26 1.15 1.05 1.03 1.09 1.13 1.15 1.17 1.25 1.31 1.35 1.36 1.34 1.32 1.31 1.36 1.42 1.40 1.26 1.08 0.97 0.94 0.92 0.91 0.94 1.07 1.06 0.89 0.97 0.91 0.92 0.90 0.86 0.85 0.83 0.80 0.77 0.78 0.80 0.83
1.19 1.05 0.94 0.86 0.82 0.76 0.76 0.81 0.87 0.88 0.92 1.00 1.07 1.18 1.26 1.32 1.36 1.34 1.34 1.35 1.41 1.43 1.32 1.12 1.05 1.01 0.95 0.98 1.15 0.91 0.90 1.08 0.98 0.91 0.86 0.81 0.77 0.70 0.64 0.59 0.57 0.56 0.55
0.91 0.78 0.67 0.60 0.59 0.61 0.64 0.62 0.66 0.69 0.71 0.76 0.83 0.92 1.03 1.13 1.27 1.34 1.40 1.41 1.38 1.37 1.34 1.16 1.08 1.07 0.99 0.93 1.14 0.95 0.95 1.00 0.86 0.76 0.68 0.63 0.60 0.56 0.53 0.51 0.50 0.49 0.48
0.85 0.74 0.65 0.62 0.59 0.56 0.54 0.56 0.57 0.60 0.65 0.68 0.66 0.71 0.80 0.87 0.98 1.07 1.14 1.18 1.22 1.22 1.24 1.17 1.10 1.08 1.05 1.01 1.00 0.88 0.82 0.80 0.76 0.70 0.57 0.52 0.48 0.45 0.44 0.46 0.46 0.46 0.45
0.66 0.60 0.55 0.55 0.54 0.51 0.51 0.51 0.50 0.48 0.47 0.48 0.49 0.54 0.61 0.65 0.72 0.75 0.82 0.90 0.96 1.00 1.03 1.12 1.16 1.09 1.04 0.98 0.92 0.81 0.65 0.59 0.61 0.63 0.54 0.50 0.48 0.46 0.45 0.44 0.45 0.43 0.39
0.54 0.54 0.50 0.49 0.48 0.47 0.45 0.43 0.42 0.37 0.33 0.35 0.38 0.41 0.46 0.48 0.52 0.53 0.57 0.60 0.67 0.78 0.92 1.02 1.09 1.05 0.99 0.89 0.85 0.72 0.61 0.62 0.49 0.49 0.46 0.45 0.46 0.45 0.42 0.37 0.34 0.32 0.30
0.50 0.51 0.48 0.43 0.37 0.33 0.32 0.34 0.37 0.33 0.29 0.28 0.30 0.32 0.36 0.39 0.41 0.42 0.43 0.47 0.54 0.67 0.81 0.90 0.89 0.87 0.83 0.75 0.75 0.70 0.63 0.56 0.48 0.35 0.34 0.30 0.31 0.31 0.31 0.28 0.25 0.24 0.23
0.43 0.41 0.38 0.36 0.32 0.28 0.28 0.30 0.32 0.30 0.29 0.27 0.25 0.24 0.28 0.33 0.37 0.37 0.36 0.43 0.52 0.64 0.72 0.75 0.74 0.69 0.66 0.67 0.68 0.62 0.58 0.52 0.43 0.33 0.32 0.26 0.25 0.28 0.30 0.28 0.24 0.18 0.14
0.38 0.37 0.34 0.33 0.31 0.27 0.29 0.29 0.27 0.31 0.33 0.33 0.28 0.25 0.25 0.25 0.29 0.31 0.34 0.40 0.48 0.54 0.58 0.60 0.60 0.63 0.59 0.58 0.63 0.61 0.58 0.58 0.54 0.40 0.38 0.31 0.24 0.32 0.33 0.30 0.22 0.15 0.11
0.40 0.36 0.32 0.30 0.33 0.31 0.29 0.26 0.27 0.33 0.36 0.36 0.34 0.32 0.26 0.22 0.29 0.31 0.32 0.35 0.40 0.41 0.46 0.54 0.59 0.60 0.58 0.63 0.71 0.70 0.67 0.64 0.59 0.46 0.47 0.45 0.35 0.37 0.28 0.21 0.20 0.16 0.13
0.40 0.38 0.34 0.32 0.33 0.31 0.30 0.27 0.28 0.30 0.37 0.36 0.34 0.34 0.35 0.35 0.32 0.31 0.27 0.30 0.35 0.41 0.44 0.48 0.57 0.58 0.54 0.58 0.69 0.71 0.66 0.62 0.59 0.55 0.56 0.58 0.42 0.37 0.26 0.33 0.30 0.21 0.15
0.40 0.36 0.35 0.34 0.35 0.33 0.30 0.28 0.28 0.30 0.33 0.28 0.26 0.29 0.30 0.31 0.31 0.33 0.31 0.35 0.37 0.42 0.41 0.47 0.51 0.54 0.58 0.61 0.62 0.63 0.70 0.76 0.74 0.65 0.62 0.64 0.55 0.44 0.35 0.41 0.38 0.27 0.24
0.41 0.34 0.34 0.36 0.37 0.38 0.32 0.29 0.29 0.26 0.28 0.24 0.24 0.26 0.27 0.24 0.23 0.24 0.25 0.34 0.45 0.44 0.41 0.46 0.61 0.77 0.82 0.78 0.69 0.69 0.77 0.82 0.83 0.86 0.73 0.69 0.67 0.54 0.50 0.42 0.41 0.43 0.46

GEFSMA_prec_meanprecacc_156.txt.gz
Total_Precipitation_Accumulation
1.27 1.56 1.61 1.74 1.47 1.43 1.36 1.24 1.06 0.99 0.86 0.75 0.70 0.73 0.81 0.80 0.84 1.02 1.04 1.00 1.03 1.23 1.56 1.72 1.70 1.72 1.68 1.63 1.48 1.32 1.20 1.12 1.01 0.89 0.73 0.61 0.55 0.52 0.54 0.58 0.59 0.56 0.55
1.74 2.09 2.15 2.06 1.81 1.84 1.93 1.92 1.72 1.51 1.30 1.20 1.07 1.04 1.08 1.11 1.21 1.25 1.25 1.18 1.06 1.14 1.44 1.69 1.88 2.05 2.03 1.83 1.59 1.42 1.40 1.35 1.25 1.09 0.95 0.85 0.77 0.72 0.68 0.66 0.65 0.62 0.56
2.20 2.27 2.51 2.46 2.25 2.17 2.13 2.07 2.19 2.16 1.81 1.54 1.41 1.39 1.48 1.46 1.48 1.50 1.54 1.56 1.37 1.25 1.33 1.53 1.71 1.83 1.90 1.89 1.77 1.65 1.64 1.48 1.35 1.21 1.11 1.03 0.95 0.91 0.85 0.78 0.76 0.74 0.70
2.50 2.54 2.56 2.56 2.46 2.42 2.62 2.67 2.57 2.51 2.38 2.13 1.94 1.80 1.74 1.79 1.66 1.60 1.58 1.69 1.76 1.51 1.31 1.29 1.36 1.47 1.68 1.94 2.06 2.09 1.96 1.74 1.56 1.42 1.32 1.21 1.12 1.02 0.93 0.87 0.84 0.85 0.81
2.91 3.01 3.05 3.07 2.92 2.94 2.90 2.76 2.93 2.82 2.72 2.51 2.14 1.94 1.78 1.81 1.73 1.50 1.49 1.60 1.67 1.60 1.52 1.33 1.30 1.39 1.63 1.89 2.07 2.22 2.15 1.95 1.82 1.71 1.62 1.50 1.34 1.18 1.07 1.01 0.99 1.00 0.98
3.70 3.70 3.62 3.60 3.46 3.36 3.21 3.12 3.07 2.86 2.71 2.48 2.08 1.89 1.72 1.57 1.52 1.50 1.35 1.35 1.37 1.28 1.37 1.37 1.37 1.30 1.45 1.63 1.85 2.04 2.05 1.99 1.92 1.79 1.66 1.61 1.51 1.37 1.26 1.19 1.14 1.12 1.12
4.13 3.99 3.87 3.89 3.71 3.53 3.33 3.19 3.08 2.99 2.70 2.45 2.39 2.10 1.68 1.46 1.35 1.27 1.25 1.22 1.15 1.15 1.28 1.30 1.28 1.25 1.26 1.43 1.49 1.64 1.82 1.91 1.95 1.90 1.82 1.77 1.62 1.43 1.34 1.31 1.29 1.27 1.22
4.42 4.22 4.18 4.07 3.83 3.64 3.39 3.17 3.04 3.01 2.78 2.59 2.56 2.47 1.98 1.60 1.27 1.01 1.03 1.06 1.05 1.09 1.11 1.09 1.07 1.09 1.14 1.23 1.27 1.42 1.62 1.79 1.90 1.94 1.89 1.74 1.64 1.52 1.46 1.46 1.45 1.43 1.39
4.77 4.58 4.45 4.17 3.91 3.62 3.35 3.10 2.92 2.86 2.77 2.66 2.50 2.57 2.27 1.85 1.45 1.14 0.97 0.91 0.95 1.04 1.05 1.02 0.98 0.96 1.00 1.10 1.22 1.28 1.34 1.37 1.49 1.60 1.63 1.64 1.62 1.55 1.50 1.51 1.52 1.53 1.56
4.05 3.96 3.89 3.72 3.50 3.23 3.04 2.81 2.63 2.54 2.64 2.54 2.42 2.24 2.09 1.85 1.63 1.36 1.09 0.96 0.95 0.99 1.03 1.00 0.98 0.99 0.99 1.03 1.13 1.22 1.18 1.10 1.16 1.25 1.30 1.29 1.30 1.30 1.33 1.38 1.41 1.45 1.52
3.37 3.15 3.04 2.94 2.81 2.68 2.54 2.47 2.41 2.30 2.27 2.20 2.08 1.99 1.88 1.76 1.54 1.36 1.20 1.06 1.02 1.03 1.04 1.04 1.08 1.07 1.05 1.05 1.01 1.07 1.09 0.99 0.99 1.06 1.08 1.08 1.12 1.20 1.26 1.24 1.23 1.29 1.40
2.74 2.39 2.21 2.10 2.02 1.95 1.96 1.99 2.02 1.98 1.93 1.89 1.85 1.76 1.69 1.67 1.56 1.46 1.29 1.17 1.17 1.11 1.06 1.03 1.02 1.05 1.07 1.05 1.05 1.13 0.97 0.91 0.89 0.90 0.97 1.02 1.06 1.10 1.15 1.20 1.25 1.31 1.36
2.21 1.87 1.68 1.61 1.57 1.55 1.50 1.54 1.58 1.59 1.58 1.58 1.57 1.53 1.55 1.54 1.52 1.49 1.54 1.46 1.24 1.05 0.98 0.98 0.95 0.94 0.95 1.00 1.09 1.15 0.94 0.88 0.88 0.92 0.95 0.94 0.96 1.00 1.05 1.06 1.09 1.14 1.18
1.75 1.52 1.35 1.27 1.17 1.07 1.05 1.12 1.16 1.19 1.21 1.30 1.36 1.42 1.43 1.40 1.39 1.38 1.44 1.52 1.49 1.34 1.15 1.05 1.01 0.99 0.98 1.00 1.12 1.13 0.97 1.05 0.98 0.99 0.97 0.91 0.89 0.88 0.86 0.83 0.83 0.85 0.88
1.23 1.08 0.96 0.88 0.84 0.79 0.79 0.84 0.90 0.92 0.96 1.04 1.13 1.24 1.33 1.39 1.43 1.40 1.41 1.44 1.52 1.52 1.41 1.20 1.13 1.07 1.01 1.02 1.20 0.95 0.95 1.16 1.07 1.00 0.93 0.87 0.82 0.75 0.69 0.64 0.61 0.59 0.58
0.94 0.81 0.69 0.62 0.62 0.64 0.67 0.66 0.70 0.73 0.74 0.80 0.88 0.97 1.09 1.21 1.35 1.42 1.49 1.50 1.49 1.49 1.44 1.24 1.15 1.13 1.05 0.99 1.20 1.00 0.98 1.04 0.92 0.82 0.74 0.70 0.66 0.61 0.58 0.55 0.54 0.53 0.52
0.88 0.77 0.68 0.64 0.62 0.59 0.58 0.60 0.61 0.64 0.69 0.71 0.70 0.75 0.85 0.93 1.06 1.15 1.24 1.27 1.33 1.33 1.34 1.26 1.18 1.16 1.13 1.08 1.06 0.93 0.86 0.82 0.80 0.76 0.64 0.58 0.55 0.50 0.49 0.50 0.51 0.50 0.49
0.69 0.63 0.57 0.57 0.56 0.54 0.54 0.55 0.53 0.51 0.51 0.52 0.54 0.60 0.67 0.70 0.78 0.82 0.91 0.99 1.06 1.12 1.13 1.20 1.24 1.16 1.11 1.07 0.99 0.86 0.69 0.61 0.63 0.68 0.60 0.57 0.55 0.53 0.50 0.50 0.51 0.48 0.45
0.58 0.57 0.53 0.51 0.50 0.50 0.47 0.46 0.46 0.40 0.36 0.38 0.42 0.45 0.49 0.52 0.57 0.58 0.62 0.68 0.76 0.87 1.02 1.11 1.15 1.11 1.05 0.98 0.92 0.77 0.65 0.65 0.52 0.53 0.50 0.50 0.52 0.52 0.49 0.43 0.39 0.37 0.34
0.53 0.54 0.50 0.45 0.39 0.35 0.33 0.36 0.40 0.35 0.31 0.31 0.33 0.36 0.39 0.42 0.44 0.46 0.47 0.52 0.60 0.75 0.90 0.98 0.95 0.93 0.91 0.83 0.82 0.78 0.70 0.61 0.51 0.39 0.37 0.34 0.35 0.34 0.35 0.32 0.29 0.27 0.26
0.46 0.44 0.40 0.38 0.33 0.30 0.29 0.31 0.33 0.32 0.30 0.29 0.27 0.27 0.30 0.35 0.39 0.39 0.39 0.47 0.57 0.70 0.79 0.83 0.82 0.76 0.73 0.74 0.74 0.70 0.65 0.59 0.49 0.37 0.35 0.29 0.27 0.30 0.32 0.31 0.28 0.23 0.17
0.42 0.40 0.36 0.35 0.33 0.28 0.29 0.29 0.28 0.32 0.35 0.35 0.30 0.26 0.26 0.26 0.29 0.32 0.35 0.42 0.51 0.58 0.63 0.66 0.66 0.68 0.66 0.64 0.68 0.66 0.64 0.64 0.60 0.45 0.42 0.34 0.26 0.33 0.35 0.31 0.25 0.18 0.15
0.43 0.39 0.35 0.34 0.36 0.33 0.29 0.26 0.27 0.34 0.38 0.38 0.36 0.34 0.28 0.24 0.30 0.33 0.34 0.36 0.41 0.43 0.49 0.58 0.64 0.64 0.63 0.67 0.76 0.75 0.73 0.70 0.65 0.51 0.52 0.50 0.38 0.39 0.29 0.22 0.21 0.17 0.14
0.45 0.42 0.38 0.37 0.36 0.32 0.30 0.28 0.28 0.31 0.39 0.38 0.36 0.36 0.37 0.37 0.34 0.33 0.30 0.32 0.37 0.42 0.47 0.51 0.63 0.64 0.59 0.63 0.74 0.77 0.73 0.67 0.64 0.59 0.60 0.62 0.46 0.39 0.27 0.34 0.31 0.22 0.16
0.45 0.39 0.38 0.37 0.38 0.35 0.30 0.28 0.29 0.32 0.36 0.31 0.28 0.31 0.32 0.34 0.33 0.35 0.34 0.37 0.39 0.43 0.42 0.49 0.55 0.59 0.64 0.67 0.67 0.68 0.75 0.83 0.80 0.70 0.65 0.67 0.57 0.45 0.36 0.42 0.39 0.28 0.25
0.44 0.37 0.37 0.39 0.40 0.40 0.33 0.29 0.30 0.28 0.30 0.27 0.26 0.28 0.29 0.26 0.25 0.26 0.29 0.39 0.49 0.47 0.43 0.48 0.64 0.81 0.87 0.84 0.74 0.73 0.82 0.87 0.87 0.89 0.75 0.71 0.69 0.56 0.52 0.43 0.42 0.44 0.47

GEFSMA_prec_meanprecacc_162.txt.gz
Total_Precipitation_Accumulation
1.31 1.60 1.65 1.79 1.52 1.47 1.41 1.29 1.11 1.04 0.92 0.82 0.81 0.82 0.88 0.89 0.99 1.16 1.17 1.14 1.18 1.38 1.67 1.81 1.76 1.77 1.72 1.66 1.52 1.36 1.23 1.16 1.05 0.92 0.76 0.65 0.59 0.55 0.56 0.60 0.61 0.57 0.56
1.82 2.16 2.22 2.14 1.90 1.91 2.00 1.99 1.80 1.58 1.39 1.28 1.17 1.16 1.19 1.22 1.35 1.39 1.35 1.31 1.18 1.23 1.54 1.79 1.98 2.12 2.08 1.87 1.63 1.47 1.44 1.39 1.28 1.14 0.99 0.89 0.81 0.75 0.72 0.70 0.68 0.64 0.58
2.31 2.36 2.60 2.54 2.34 2.25 2.19 2.14 2.28 2.26 1.91 1.62 1.47 1.48 1.60 1.57 1.62 1.64 1.67 1.66 1.44 1.33 1.42 1.62 1.81 1.92 1.99 1.96 1.82 1.69 1.68 1.54 1.40 1.26 1.16 1.08 0.99 0.95 0.89 0.81 0.79 0.77 0.72
2.59 2.63 2.64 2.62 2.53 2.49 2.68 2.74 2.63 2.56 2.43 2.17 1.98 1.84 1.79 1.85 1.72 1.65 1.64 1.76 1.82 1.56 1.38 1.37 1.46 1.57 1.79 2.03 2.13 2.15 2.01 1.79 1.60 1.45 1.36 1.27 1.17 1.06 0.97 0.90 0.88 0.89 0.85
2.96 3.06 3.11 3.13 2.98 3.00 2.96 2.81 2.98 2.87 2.75 2.53 2.16 1.96 1.80 1.84 1.75 1.53 1.52 1.65 1.74 1.67 1.58 1.41 1.42 1.51 1.73 1.98 2.15 2.29 2.20 2.00 1.86 1.75 1.66 1.55 1.40 1.24 1.11 1.05 1.02 1.03 1.01
3.74 3.75 3.68 3.66 3.52 3.41 3.26 3.17 3.11 2.89 2.74 2.50 2.10 1.90 1.73 1.58 1.53 1.52 1.38 1.39 1.45 1.37 1.46 1.49 1.50 1.41 1.54 1.72 1.92 2.10 2.12 2.08 1.99 1.85 1.71 1.68 1.59 1.45 1.33 1.25 1.19 1.16 1.16
4.20 4.05 3.95 3.96 3.76 3.59 3.39 3.25 3.14 3.05 2.74 2.49 2.41 2.11 1.69 1.47 1.36 1.29 1.28 1.26 1.20 1.22 1.38 1.42 1.40 1.36 1.35 1.51 1.57 1.71 1.90 2.00 2.05 1.98 1.88 1.83 1.68 1.50 1.41 1.38 1.36 1.34 1.28
4.49 4.29 4.27 4.18 3.93 3.73 3.47 3.25 3.11 3.06 2.81 2.61 2.59 2.50 1.99 1.61 1.28 1.02 1.04 1.09 1.09 1.15 1.21 1.22 1.19 1.21 1.27 1.33 1.34 1.50 1.70 1.87 1.99 2.03 1.97 1.81 1.71 1.59 1.53 1.52 1.52 1.50 1.47
4.84 4.64 4.52 4.26 4.03 3.75 3.47 3.18 2.98 2.91 2.81 2.69 2.53 2.60 2.29 1.87 1.46 1.15 0.98 0.93 0.99 1.11 1.15 1.15 1.11 1.06 1.12 1.22 1.31 1.35 1.42 1.44 1.57 1.69 1.71 1.71 1.69 1.63 1.56 1.57 1.58 1.60 1.63
4.16 4.05 3.96 3.78 3.56 3.31 3.13 2.89 2.69 2.58 2.68 2.58 2.45 2.28 2.12 1.88 1.66 1.39 1.12 0.99 0.98 1.03 1.10 1.12 1.10 1.08 1.07 1.13 1.22 1.28 1.24 1.16 1.22 1.33 1.38 1.36 1.38 1.38 1.39 1.44 1.47 1.53 1.62
3.49 3.25 3.12 3.01 2.87 2.74 2.58 2.51 2.45 2.34 2.30 2.23 2.11 2.03 1.92 1.81 1.60 1.42 1.24 1.07 1.04 1.05 1.08 1.10 1.18 1.16 1.13 1.13 1.09 1.12 1.14 1.05 1.05 1.12 1.15 1.13 1.17 1.25 1.31 1.30 1.30 1.37 1.50
2.84 2.48 2.28 2.17 2.07 1.99 1.99 2.02 2.04 2.00 1.95 1.93 1.90 1.82 1.75 1.72 1.61 1.51 1.34 1.19 1.19 1.13 1.09 1.07 1.07 1.11 1.14 1.11 1.10 1.17 1.00 0.95 0.93 0.94 1.02 1.07 1.10 1.15 1.19 1.26 1.32 1.39 1.48
2.28 1.93 1.75 1.69 1.63 1.58 1.53 1.57 1.60 1.60 1.60 1.62 1.61 1.58 1.59 1.58 1.56 1.53 1.58 1.49 1.27 1.08 1.01 1.02 0.99 0.98 1.01 1.06 1.13 1.19 0.97 0.91 0.90 0.94 0.98 0.98 1.00 1.05 1.10 1.11 1.16 1.24 1.29
1.81 1.58 1.41 1.33 1.22 1.12 1.08 1.14 1.19 1.22 1.24 1.33 1.39 1.45 1.45 1.43 1.42 1.40 1.47 1.55 1.52 1.36 1.19 1.09 1.07 1.05 1.04 1.06 1.16 1.16 0.99 1.08 1.00 1.01 1.00 0.94 0.93 0.92 0.90 0.88 0.88 0.93 0.97
1.29 1.14 1.01 0.92 0.88 0.83 0.82 0.86 0.92 0.94 0.99 1.07 1.15 1.26 1.34 1.41 1.46 1.42 1.44 1.48 1.55 1.54 1.43 1.24 1.18 1.13 1.08 1.08 1.25 0.99 0.98 1.19 1.10 1.03 0.96 0.90 0.86 0.79 0.73 0.68 0.65 0.64 0.64
1.00 0.88 0.76 0.67 0.66 0.68 0.69 0.67 0.72 0.75 0.77 0.82 0.90 1.00 1.11 1.22 1.37 1.44 1.52 1.54 1.52 1.52 1.46 1.27 1.20 1.18 1.11 1.04 1.25 1.04 1.02 1.08 0.95 0.86 0.79 0.73 0.70 0.65 0.61 0.60 0.60 0.58 0.57
0.96 0.83 0.74 0.70 0.66 0.63 0.60 0.62 0.63 0.65 0.71 0.73 0.72 0.78 0.87 0.95 1.08 1.18 1.28 1.33 1.40 1.41 1.41 1.32 1.23 1.20 1.17 1.14 1.13 0.99 0.91 0.86 0.83 0.78 0.67 0.62 0.59 0.55 0.53 0.55 0.56 0.55 0.55
0.76 0.68 0.62 0.62 0.60 0.57 0.57 0.57 0.55 0.53 0.54 0.56 0.57 0.62 0.69 0.72 0.81 0.85 0.94 1.03 1.10 1.17 1.20 1.29 1.33 1.25 1.19 1.17 1.09 0.95 0.76 0.66 0.67 0.71 0.63 0.61 0.60 0.59 0.57 0.56 0.56 0.54 0.51
0.65 0.62 0.58 0.55 0.53 0.52 0.49 0.48 0.48 0.44 0.40 0.41 0.44 0.46 0.51 0.54 0.59 0.60 0.64 0.70 0.79 0.91 1.06 1.16 1.23 1.21 1.18 1.16 1.09 0.88 0.73 0.70 0.56 0.57 0.54 0.54 0.56 0.57 0.55 0.50 0.46 0.44 0.42
0.61 0.60 0.54 0.48 0.41 0.37 0.35 0.38 0.42 0.37 0.32 0.32 0.34 0.37 0.41 0.43 0.45 0.47 0.49 0.54 0.62 0.78 0.93 1.01 0.99 0.98 1.00 0.96 0.95 0.87 0.75 0.65 0.55 0.41 0.40 0.37 0.38 0.37 0.39 0.37 0.35 0.34 0.33
0.52 0.49 0.44 0.41 0.36 0.32 0.32 0.33 0.36 0.34 0.31 0.30 0.28 0.28 0.31 0.36 0.40 0.40 0.40 0.48 0.58 0.73 0.83 0.87 0.85 0.80 0.78 0.80 0.80 0.74 0.70 0.63 0.52 0.39 0.37 0.31 0.30 0.32 0.34 0.34 0.32 0.28 0.24
0.49 0.45 0.39 0.37 0.35 0.30 0.30 0.30 0.29 0.33 0.35 0.35 0.31 0.27 0.27 0.27 0.30 0.33 0.36 0.43 0.52 0.60 0.64 0.68 0.69 0.71 0.69 0.68 0.71 0.69 0.67 0.67 0.63 0.47 0.43 0.36 0.28 0.35 0.36 0.33 0.26 0.21 0.19
0.48 0.42 0.37 0.35 0.37 0.34 0.30 0.27 0.28 0.34 0.38 0.39 0.36 0.34 0.28 0.24 0.31 0.34 0.35 0.38 0.42 0.44 0.50 0.60 0.66 0.67 0.65 0.70 0.78 0.78 0.76 0.73 0.67 0.53 0.54 0.53 0.40 0.41 0.30 0.23 0.22 0.18 0.16
0.48 0.45 0.40 0.37 0.36 0.33 0.30 0.28 0.28 0.32 0.39 0.38 0.36 0.37 0.38 0.39 0.35 0.35 0.31 0.33 0.38 0.44 0.49 0.53 0.64 0.65 0.60 0.65 0.77 0.80 0.75 0.70 0.66 0.62 0.63 0.65 0.49 0.41 0.29 0.35 0.32 0.23 0.17
0.47 0.41 0.39 0.38 0.39 0.35 0.30 0.28 0.29 0.32 0.36 0.31 0.28 0.31 0.33 0.35 0.34 0.35 0.35 0.38 0.40 0.45 0.44 0.50 0.55 0.60 0.65 0.68 0.69 0.71 0.78 0.85 0.82 0.72 0.68 0.71 0.60 0.47 0.38 0.43 0.40 0.30 0.27
0.45 0.38 0.37 0.39 0.40 0.40 0.33 0.29 0.30 0.28 0.31 0.27 0.27 0.28 0.29 0.26 0.25 0.26 0.30 0.41 0.50 0.48 0.45 0.49 0.65 0.82 0.89 0.86 0.76 0.76 0.85 0.90 0.89 0.91 0.77 0.74 0.73 0.58 0.54 0.45 0.43 0.45 0.48

GEFSMA_prec_meanprecacc_168.txt.gz
Total_Precipitation_Accumulation
1.36 1.64 1.68 1.81 1.54 1.51 1.45 1.33 1.15 1.09 0.97 0.87 0.85 0.85 0.91 0.92 1.02 1.20 1.20 1.17 1.23 1.47 1.81 1.97 1.91 1.90 1.84 1.76 1.61 1.46 1.32 1.25 1.13 0.99 0.82 0.71 0.64 0.61 0.62 0.66 0.66 0.61 0.60
1.87 2.21 2.28 2.19 1.96 1.97 2.06 2.04 1.84 1.62 1.44 1.33 1.21 1.20 1.22 1.25 1.38 1.42 1.37 1.34 1.23 1.30 1.65 1.93 2.14 2.28 2.21 1.98 1.73 1.59 1.56 1.48 1.35 1.21 1.07 0.96 0.87 0.82 0.79 0.76 0.75 0.69 0.63
2.37 2.43 2.66 2.60 2.40 2.30 2.25 2.20 2.34 2.32 1.95 1.65 1.51 1.51 1.62 1.60 1.64 1.67 1.70 1.70 1.48 1.38 1.50 1.73 1.94 2.08 2.15 2.11 1.95 1.81 1.80 1.64 1.48 1.33 1.24 1.16 1.09 1.04 0.98 0.88 0.86 0.84 0.78
2.63 2.68 2.69 2.68 2.59 2.55 2.74 2.80 2.70 2.62 2.48 2.21 2.02 1.86 1.80 1.87 1.75 1.68 1.67 1.79 1.85 1.58 1.41 1.43 1.54 1.66 1.89 2.16 2.26 2.28 2.14 1.92 1.71 1.54 1.44 1.34 1.25 1.15 1.05 0.98 0.96 0.96 0.92
3.02 3.12 3.16 3.19 3.05 3.08 3.04 2.88 3.04 2.93 2.81 2.58 2.20 1.99 1.82 1.85 1.76 1.54 1.53 1.67 1.76 1.68 1.60 1.44 1.48 1.59 1.82 2.09 2.27 2.42 2.34 2.15 1.98 1.84 1.73 1.63 1.48 1.33 1.21 1.13 1.10 1.09 1.07
3.82 3.83 3.75 3.73 3.59 3.48 3.33 3.23 3.17 2.95 2.79 2.56 2.14 1.93 1.75 1.59 1.54 1.53 1.39 1.41 1.46 1.38 1.47 1.49 1.52 1.45 1.60 1.81 2.03 2.22 2.24 2.22 2.12 1.95 1.80 1.76 1.67 1.53 1.41 1.33 1.26 1.22 1.22
4.29 4.15 4.04 4.04 3.85 3.67 3.46 3.32 3.20 3.11 2.80 2.55 2.46 2.15 1.71 1.48 1.37 1.29 1.28 1.26 1.21 1.22 1.39 1.43 1.41 1.38 1.38 1.57 1.65 1.81 2.02 2.14 2.20 2.13 2.00 1.91 1.76 1.58 1.49 1.46 1.45 1.42 1.35
4.61 4.42 4.40 4.29 4.03 3.82 3.57 3.35 3.21 3.16 2.92 2.70 2.65 2.54 2.02 1.63 1.29 1.03 1.05 1.09 1.09 1.16 1.22 1.23 1.20 1.22 1.29 1.37 1.38 1.57 1.80 1.99 2.13 2.17 2.11 1.92 1.80 1.68 1.61 1.59 1.59 1.59 1.55
5.00 4.81 4.67 4.37 4.11 3.81 3.52 3.25 3.05 2.98 2.90 2.78 2.59 2.65 2.32 1.89 1.47 1.16 0.99 0.94 1.00 1.11 1.16 1.16 1.13 1.09 1.15 1.26 1.36 1.41 1.49 1.53 1.67 1.83 1.84 1.83 1.81 1.73 1.65 1.65 1.65 1.67 1.71
4.33 4.21 4.12 3.90 3.65 3.38 3.17 2.93 2.73 2.63 2.72 2.63 2.50 2.32 2.16 1.91 1.68 1.40 1.12 0.99 0.98 1.03 1.11 1.12 1.12 1.10 1.11 1.18 1.28 1.34 1.31 1.24 1.31 1.43 1.49 1.47 1.48 1.49 1.50 1.55 1.58 1.63 1.71
3.65 3.38 3.23 3.12 2.96 2.80 2.63 2.55 2.49 2.39 2.35 2.28 2.17 2.08 1.99 1.87 1.64 1.44 1.25 1.08 1.04 1.05 1.08 1.11 1.20 1.20 1.17 1.17 1.15 1.18 1.19 1.11 1.12 1.20 1.24 1.23 1.25 1.33 1.40 1.39 1.40 1.47 1.60
2.99 2.60 2.38 2.27 2.16 2.06 2.05 2.08 2.08 2.04 2.01 1.99 1.97 1.89 1.81 1.79 1.66 1.55 1.36 1.21 1.20 1.14 1.10 1.08 1.08 1.13 1.17 1.15 1.14 1.22 1.05 0.99 0.97 1.00 1.09 1.15 1.17 1.21 1.25 1.32 1.38 1.47 1.56
2.41 2.03 1.83 1.76 1.69 1.65 1.61 1.64 1.66 1.65 1.65 1.67 1.67 1.63 1.64 1.64 1.60 1.57 1.62 1.52 1.29 1.08 1.02 1.03 1.01 1.00 1.03 1.08 1.17 1.22 1.00 0.94 0.93 0.98 1.03 1.04 1.07 1.10 1.15 1.16 1.21 1.30 1.35
1.92 1.67 1.48 1.40 1.29 1.19 1.17 1.22 1.26 1.29 1.29 1.37 1.43 1.49 1.49 1.47 1.45 1.43 1.49 1.57 1.54 1.37 1.19 1.10 1.08 1.07 1.07 1.08 1.20 1.20 1.03 1.11 1.03 1.04 1.04 0.99 0.97 0.96 0.95 0.93 0.93 0.98 1.02
1.37 1.21 1.08 0.99 0.94 0.88 0.89 0.95 1.00 1.01 1.04 1.12 1.20 1.30 1.38 1.44 1.48 1.44 1.47 1.51 1.58 1.57 1.45 1.26 1.21 1.17 1.13 1.13 1.29 1.02 1.01 1.23 1.14 1.06 1.00 0.94 0.90 0.82 0.77 0.73 0.70 0.69 0.68
1.08 0.97 0.82 0.73 0.71 0.72 0.73 0.72 0.77 0.81 0.82 0.87 0.95 1.04 1.16 1.26 1.40 1.47 1.55 1.57 1.57 1.56 1.50 1.31 1.25 1.25 1.18 1.11 1.31 1.08 1.06 1.13 1.00 0.91 0.83 0.77 0.74 0.69 0.65 0.65 0.65 0.63 0.61
1.05 0.93 0.83 0.77 0.72 0.67 0.64 0.66 0.66 0.69 0.75 0.78 0.77 0.83 0.93 0.99 1.12 1.22 1.30 1.35 1.43 1.45 1.46 1.37 1.28 1.27 1.24 1.21 1.19 1.05 0.96 0.91 0.88 0.84 0.73 0.67 0.64 0.59 0.57 0.59 0.61 0.59 0.58
0.88 0.80 0.72 0.71 0.68 0.64 0.62 0.62 0.60 0.57 0.57 0.59 0.62 0.68 0.74 0.77 0.86 0.90 0.97 1.06 1.13 1.20 1.24 1.34 1.41 1.34 1.27 1.25 1.16 1.01 0.82 0.72 0.72 0.75 0.68 0.65 0.65 0.64 0.61 0.60 0.59 0.57 0.53
0.75 0.74 0.68 0.63 0.59 0.57 0.54 0.52 0.51 0.47 0.43 0.44 0.46 0.50 0.56 0.60 0.62 0.62 0.66 0.72 0.81 0.93 1.08 1.19 1.28 1.29 1.26 1.25 1.21 0.98 0.80 0.77 0.62 0.62 0.58 0.58 0.59 0.60 0.59 0.53 0.49 0.47 0.45
0.69 0.69 0.61 0.53 0.46 0.42 0.38 0.40 0.44 0.40 0.35 0.34 0.36 0.39 0.44 0.46 0.47 0.48 0.50 0.55 0.63 0.79 0.94 1.03 1.02 1.03 1.07 1.03 1.06 0.98 0.85 0.74 0.62 0.46 0.44 0.41 0.40 0.39 0.41 0.40 0.38 0.37 0.37
0.59 0.57 0.50 0.47 0.42 0.37 0.34 0.35 0.38 0.36 0.34 0.31 0.29 0.29 0.32 0.37 0.41 0.41 0.41 0.48 0.59 0.74 0.84 0.90 0.91 0.84 0.82 0.84 0.86 0.80 0.80 0.74 0.62 0.46 0.42 0.33 0.31 0.33 0.36 0.36 0.35 0.31 0.27
0.55 0.51 0.46 0.43 0.40 0.33 0.33 0.33 0.31 0.35 0.37 0.36 0.32 0.28 0.27 0.28 0.31 0.34 0.37 0.44 0.53 0.61 0.66 0.71 0.74 0.75 0.72 0.71 0.75 0.75 0.74 0.75 0.71 0.53 0.47 0.39 0.30 0.37 0.37 0.34 0.29 0.25 0.23
0.52 0.48 0.44 0.42 0.42 0.38 0.33 0.29 0.30 0.36 0.40 0.40 0.37 0.35 0.29 0.25 0.32 0.35 0.36 0.39 0.44 0.46 0.52 0.62 0.68 0.69 0.67 0.72 0.81 0.81 0.80 0.77 0.73 0.58 0.57 0.56 0.44 0.44 0.32 0.24 0.24 0.21 0.20
0.53 0.51 0.49 0.45 0.42 0.36 0.32 0.30 0.30 0.33 0.40 0.39 0.37 0.37 0.39 0.39 0.36 0.36 0.33 0.35 0.40 0.45 0.50 0.55 0.66 0.67 0.62 0.66 0.78 0.82 0.78 0.72 0.68 0.65 0.67 0.69 0.51 0.44 0.30 0.36 0.34 0.25 0.20
0.52 0.47 0.47 0.44 0.44 0.38 0.33 0.30 0.31 0.32 0.36 0.32 0.29 0.32 0.33 0.36 0.35 0.36 0.36 0.38 0.40 0.45 0.45 0.52 0.57 0.61 0.67 0.70 0.70 0.72 0.80 0.88 0.84 0.74 0.71 0.76 0.64 0.50 0.40 0.45 0.42 0.32 0.29
0.49 0.42 0.41 0.44 0.45 0.43 0.35 0.30 0.31 0.29 0.31 0.27 0.27 0.29 0.30 0.27 0.26 0.26 0.30 0.41 0.50 0.48 0.45 0.50 0.66 0.83 0.89 0.87 0.77 0.77 0.87 0.93 0.92 0.93 0.79 0.78 0.80 0.64 0.57 0.47 0.45 0.46 0.50

GEFSMA_prec_meanprecacc_174.txt.gz
Total_Precipitation_Accumulation
1.45 1.72 1.74 1.87 1.59 1.56 1.53 1.43 1.25 1.16 1.05 0.95 0.90 0.90 0.96 0.96 1.05 1.23 1.23 1.20 1.25 1.52 1.91 2.08 2.04 2.04 1.98 1.89 1.75 1.60 1.44 1.36 1.23 1.08 0.89 0.77 0.70 0.66 0.68 0.72 0.72 0.67 0.65
1.95 2.28 2.34 2.24 2.00 2.01 2.13 2.13 1.93 1.71 1.51 1.40 1.27 1.26 1.27 1.29 1.43 1.46 1.41 1.38 1.26 1.34 1.71 2.02 2.24 2.41 2.35 2.10 1.85 1.72 1.68 1.61 1.47 1.31 1.17 1.05 0.94 0.87 0.83 0.82 0.81 0.76 0.68
2.44 2.49 2.72 2.66 2.46 2.37 2.33 2.29 2.44 2.41 2.03 1.72 1.58 1.57 1.67 1.64 1.70 1.73 1.75 1.74 1.53 1.42 1.55 1.78 2.00 2.16 2.23 2.21 2.06 1.93 1.93 1.76 1.59 1.44 1.33 1.24 1.17 1.11 1.04 0.95 0.93 0.91 0.85
2.72 2.76 2.75 2.75 2.67 2.63 2.82 2.89 2.79 2.71 2.57 2.30 2.10 1.92 1.86 1.92 1.79 1.72 1.71 1.83 1.91 1.62 1.44 1.45 1.57 1.71 1.94 2.23 2.36 2.38 2.25 2.02 1.80 1.63 1.52 1.42 1.32 1.21 1.11 1.05 1.03 1.03 0.98
3.10 3.18 3.22 3.27 3.12 3.17 3.13 2.97 3.13 3.04 2.91 2.68 2.29 2.06 1.87 1.90 1.80 1.58 1.56 1.70 1.81 1.73 1.64 1.47 1.50 1.61 1.85 2.14 2.35 2.51 2.44 2.25 2.07 1.90 1.79 1.69 1.54 1.38 1.25 1.18 1.15 1.15 1.13
3.90 3.90 3.84 3.83 3.68 3.58 3.44 3.34 3.28 3.04 2.87 2.64 2.22 1.99 1.80 1.64 1.58 1.56 1.41 1.43 1.50 1.42 1.51 1.54 1.57 1.48 1.63 1.85 2.08 2.28 2.31 2.30 2.21 2.02 1.86 1.81 1.73 1.58 1.45 1.37 1.31 1.27 1.28
4.37 4.22 4.12 4.14 3.95 3.77 3.57 3.43 3.30 3.19 2.88 2.61 2.53 2.20 1.75 1.51 1.40 1.31 1.30 1.28 1.23 1.25 1.43 1.48 1.46 1.42 1.42 1.59 1.68 1.84 2.06 2.21 2.29 2.22 2.10 2.00 1.81 1.64 1.55 1.52 1.50 1.47 1.40
4.73 4.53 4.48 4.36 4.11 3.91 3.66 3.43 3.29 3.24 2.99 2.78 2.73 2.63 2.08 1.68 1.33 1.05 1.07 1.10 1.11 1.17 1.24 1.25 1.24 1.26 1.33 1.40 1.40 1.58 1.82 2.03 2.19 2.26 2.20 2.01 1.87 1.74 1.68 1.66 1.66 1.65 1.60
5.12 4.93 4.80 4.48 4.23 3.93 3.61 3.32 3.13 3.06 2.98 2.88 2.70 2.77 2.42 1.95 1.53 1.19 1.01 0.96 1.01 1.13 1.17 1.18 1.15 1.11 1.18 1.30 1.40 1.44 1.51 1.55 1.72 1.92 1.96 1.94 1.92 1.83 1.76 1.74 1.73 1.74 1.78
4.52 4.39 4.30 4.07 3.79 3.49 3.26 3.01 2.80 2.70 2.81 2.72 2.60 2.42 2.25 1.99 1.75 1.45 1.15 1.01 1.00 1.04 1.12 1.14 1.14 1.14 1.14 1.21 1.32 1.37 1.33 1.26 1.34 1.50 1.59 1.57 1.58 1.59 1.61 1.65 1.66 1.70 1.77
3.80 3.55 3.42 3.30 3.11 2.90 2.71 2.62 2.57 2.46 2.42 2.36 2.25 2.17 2.08 1.95 1.71 1.50 1.29 1.10 1.05 1.06 1.09 1.13 1.23 1.23 1.20 1.20 1.19 1.21 1.21 1.13 1.14 1.24 1.30 1.31 1.34 1.42 1.48 1.48 1.49 1.56 1.70
3.15 2.76 2.55 2.44 2.32 2.20 2.15 2.15 2.15 2.11 2.08 2.08 2.06 1.98 1.90 1.88 1.75 1.62 1.42 1.25 1.22 1.15 1.11 1.10 1.11 1.15 1.19 1.17 1.17 1.24 1.06 1.00 1.00 1.03 1.13 1.20 1.25 1.28 1.33 1.39 1.46 1.54 1.64
2.55 2.19 1.98 1.91 1.84 1.78 1.72 1.74 1.76 1.73 1.73 1.77 1.78 1.73 1.73 1.71 1.67 1.64 1.68 1.58 1.32 1.10 1.03 1.05 1.04 1.03 1.05 1.11 1.21 1.25 1.02 0.95 0.96 1.01 1.06 1.08 1.14 1.17 1.20 1.21 1.28 1.36 1.40
2.06 1.82 1.66 1.58 1.46 1.34 1.29 1.32 1.36 1.38 1.38 1.47 1.53 1.60 1.59 1.55 1.52 1.49 1.55 1.63 1.58 1.40 1.21 1.13 1.11 1.11 1.10 1.12 1.24 1.24 1.06 1.13 1.05 1.07 1.07 1.03 1.04 1.03 1.00 0.98 0.98 1.03 1.07
1.51 1.36 1.23 1.13 1.07 1.01 1.00 1.05 1.09 1.06 1.10 1.19 1.28 1.40 1.48 1.53 1.55 1.50 1.52 1.56 1.64 1.61 1.49 1.30 1.26 1.21 1.17 1.17 1.33 1.06 1.06 1.26 1.17 1.08 1.02 0.97 0.95 0.89 0.82 0.78 0.74 0.72 0.72
1.20 1.08 0.95 0.86 0.82 0.81 0.81 0.79 0.83 0.86 0.87 0.92 1.03 1.15 1.26 1.36 1.50 1.54 1.60 1.63 1.63 1.63 1.57 1.36 1.30 1.30 1.23 1.16 1.37 1.14 1.11 1.19 1.05 0.95 0.86 0.80 0.78 0.74 0.70 0.69 0.69 0.68 0.65
1.18 1.05 0.92 0.87 0.82 0.77 0.72 0.73 0.71 0.73 0.79 0.82 0.81 0.90 1.03 1.11 1.23 1.31 1.38 1.42 1.51 1.54 1.53 1.43 1.33 1.33 1.28 1.27 1.28 1.14 1.04 0.98 0.95 0.90 0.77 0.70 0.67 0.63 0.62 0.64 0.66 0.65 0.64
0.93 0.87 0.80 0.79 0.76 0.71 0.69 0.68 0.64 0.61 0.61 0.64 0.67 0.74 0.82 0.87 0.97 1.00 1.07 1.15 1.22 1.28 1.33 1.43 1.49 1.41 1.32 1.31 1.23 1.07 0.89 0.78 0.78 0.82 0.74 0.69 0.68 0.68 0.67 0.66 0.66 0.63 0.59
0.86 0.83 0.77 0.71 0.67 0.64 0.59 0.56 0.54 0.50 0.47 0.48 0.53 0.58 0.64 0.69 0.72 0.72 0.76 0.80 0.88 0.99 1.15 1.25 1.34 1.35 1.31 1.30 1.27 1.03 0.86 0.83 0.67 0.67 0.63 0.64 0.65 0.65 0.65 0.60 0.55 0.52 0.49
0.81 0.82 0.70 0.60 0.52 0.48 0.43 0.44 0.47 0.43 0.38 0.38 0.40 0.45 0.49 0.50 0.52 0.54 0.56 0.60 0.68 0.84 1.00 1.09 1.08 1.10 1.13 1.07 1.12 1.04 0.93 0.81 0.68 0.51 0.49 0.46 0.48 0.47 0.48 0.45 0.43 0.41 0.40
0.66 0.66 0.60 0.54 0.47 0.42 0.38 0.39 0.40 0.39 0.36 0.34 0.32 0.33 0.36 0.40 0.43 0.43 0.43 0.51 0.63 0.79 0.89 0.96 0.98 0.92 0.90 0.90 0.91 0.86 0.86 0.82 0.69 0.53 0.48 0.39 0.37 0.40 0.43 0.42 0.40 0.35 0.31
0.62 0.60 0.56 0.53 0.48 0.38 0.37 0.36 0.34 0.38 0.39 0.40 0.35 0.31 0.30 0.30 0.34 0.36 0.39 0.45 0.55 0.64 0.70 0.76 0.81 0.82 0.80 0.78 0.82 0.81 0.81 0.82 0.79 0.62 0.58 0.49 0.37 0.44 0.45 0.41 0.33 0.27 0.26
0.57 0.53 0.49 0.47 0.47 0.42 0.37 0.31 0.32 0.38 0.42 0.43 0.40 0.37 0.31 0.27 0.34 0.36 0.37 0.41 0.45 0.48 0.55 0.65 0.73 0.73 0.72 0.77 0.86 0.87 0.86 0.86 0.81 0.65 0.66 0.67 0.54 0.54 0.41 0.32 0.29 0.24 0.23
0.57 0.55 0.54 0.49 0.45 0.40 0.35 0.31 0.31 0.34 0.43 0.42 0.39 0.39 0.40 0.41 0.38 0.38 0.35 0.37 0.42 0.47 0.52 0.57 0.69 0.70 0.64 0.69 0.82 0.86 0.83 0.80 0.75 0.70 0.73 0.77 0.59 0.52 0.38 0.43 0.38 0.29 0.23
0.57 0.53 0.52 0.47 0.46 0.41 0.36 0.32 0.32 0.34 0.39 0.34 0.31 0.33 0.34 0.37 0.36 0.37 0.37 0.41 0.43 0.47 0.46 0.53 0.58 0.62 0.67 0.70 0.71 0.74 0.82 0.92 0.89 0.78 0.76 0.82 0.70 0.55 0.45 0.50 0.46 0.35 0.33
0.53 0.46 0.45 0.46 0.47 0.45 0.36 0.31 0.32 0.31 0.34 0.30 0.30 0.30 0.31 0.28 0.26 0.27 0.31 0.43 0.53 0.50 0.46 0.51 0.67 0.84 0.90 0.87 0.77 0.78 0.89 0.97 0.96 0.97 0.82 0.82 0.83 0.69 0.62 0.51 0.49 0.50 0.53